Time,TemperatureF,DewpointF,PressureIn,WindDirection,WindDirectionDegrees,WindSpeedMPH,WindSpeedGustMPH,Humidity,HourlyPrecipIn,Conditions,Clouds,dailyrainin,SolarRadiationWatts/m^2,SoftwareType,DateUTC
2013-02-27 00:00:00,38.0,38.0,29.67,West,267,8.5,10.4,100,0.00,,OVC,0.74,0.0,WeatherDisplay:10.37,2013-02-27 05:00:00,
2013-02-27 00:01:00,38.0,38.0,29.67,West,267,5.2,10.4,100,0.00,RA,OVC,0.00,0.0,WeatherDisplay:10.37,2013-02-27 05:01:00,
2013-02-27 00:02:00,38.0,38.0,29.67,West,269,7.6,8.0,100,0.00,RA,OVC,0.00,0.0,WeatherDisplay:10.37,2013-02-27 05:02:00,
2013-02-27 00:05:00,38.0,38.0,29.67,West,267,6.7,6.9,100,0.00,RA,OVC,0.00,0.0,WeatherDisplay:10.37,2013-02-27 05:05:00,
2013-02-27 00:06:00,38.0,38.0,29.67,West,267,7.1,10.4,100,0.00,RA,OVC,0.00,0.0,WeatherDisplay:10.37,2013-02-27 05:06:00,
2013-02-27 00:08:00,38.0,38.0,29.67,West,269,6.6,9.0,100,0.00,RA,OVC,0.00,0.0,WeatherDisplay:10.37,2013-02-27 05:08:00,
2013-02-27 00:09:00,38.0,38.0,29.67,West,269,5.0,9.2,100,0.00,RA,OVC,0.00,0.0,WeatherDisplay:10.37,2013-02-27 05:09:00,
2013-02-27 00:10:00,38.0,38.0,29.67,West,267,7.7,11.5,100,0.00,,OVC,0.00,0.0,WeatherDisplay:10.37,2013-02-27 05:10:00,
2013-02-27 00:11:00,38.2,38.2,29.67,West,266,7.9,11.5,100,0.00,,OVC,0.00,0.0,WeatherDisplay:10.37,2013-02-27 05:11:00,
2013-02-27 00:13:00,38.2,38.2,29.67,West,266,6.5,9.2,100,0.00,,OVC,0.00,0.0,WeatherDisplay:10.37,2013-02-27 05:13:00,
2013-02-27 00:15:00,38.2,38.2,29.67,West,263,9.0,12.0,100,0.00,,OVC,0.00,0.0,WeatherDisplay:10.37,2013-02-27 05:15:00,
2013-02-27 00:16:00,38.2,38.2,29.67,West,269,9.0,10.4,100,0.00,,OVC,0.00,0.0,WeatherDisplay:10.37,2013-02-27 05:16:00,
2013-02-27 00:17:00,38.2,38.2,29.67,West,269,7.9,11.5,100,0.00,,OVC,0.00,0.0,WeatherDisplay:10.37,2013-02-27 05:17:00,
2013-02-27 00:18:00,38.2,38.2,29.67,WSW,253,6.9,11.5,100,0.00,,OVC,0.00,0.0,WeatherDisplay:10.37,2013-02-27 05:18:00,
2013-02-27 00:20:00,38.0,38.0,29.66,WSW,248,8.8,11.5,100,0.00,,OVC,0.00,0.0,WeatherDisplay:10.37,2013-02-27 05:20:00,
2013-02-27 00:21:00,38.2,38.2,29.66,WSW,258,8.5,11.5,100,0.00,,OVC,0.00,0.0,WeatherDisplay:10.37,2013-02-27 05:21:00,
2013-02-27 00:22:00,38.2,38.2,29.66,WSW,258,6.6,10.4,100,0.00,,OVC,0.00,0.0,WeatherDisplay:10.37,2013-02-27 05:22:00,
2013-02-27 00:26:00,38.2,38.2,29.66,West,259,6.5,6.9,100,0.00,,OVC,0.00,0.0,WeatherDisplay:10.37,2013-02-27 05:26:00,
2013-02-27 00:27:00,38.2,38.2,29.66,West,259,6.1,6.9,100,0.00,,OVC,0.00,0.0,WeatherDisplay:10.37,2013-02-27 05:27:00,
2013-02-27 00:28:00,38.2,38.2,29.66,WSW,258,4.9,5.8,100,0.00,,OVC,0.00,0.0,WeatherDisplay:10.37,2013-02-27 05:28:00,
2013-02-27 00:30:00,38.2,38.2,29.66,WSW,258,5.0,12.0,100,0.00,,OVC,0.00,0.0,WeatherDisplay:10.37,2013-02-27 05:30:00,
2013-02-27 00:32:00,38.2,38.2,29.66,WSW,254,8.0,10.4,100,0.00,,OVC,0.00,0.0,WeatherDisplay:10.37,2013-02-27 05:32:00,
2013-02-27 00:33:00,38.3,38.3,29.66,WSW,254,8.1,10.4,100,0.00,,OVC,0.00,0.0,WeatherDisplay:10.37,2013-02-27 05:33:00,
2013-02-27 00:35:00,38.3,38.3,29.66,WSW,256,5.4,10.4,100,0.00,,OVC,0.00,0.0,WeatherDisplay:10.37,2013-02-27 05:35:00,
2013-02-27 00:38:00,38.3,38.3,29.67,WSW,255,5.1,7.0,100,0.00,,OVC,0.00,0.0,WeatherDisplay:10.37,2013-02-27 05:38:00,
2013-02-27 00:40:00,38.3,38.3,29.67,WSW,255,4.5,6.0,100,0.00,,OVC,0.00,0.0,WeatherDisplay:10.37,2013-02-27 05:40:00,
2013-02-27 00:42:00,38.3,38.3,29.67,WSW,255,4.2,6.9,100,0.00,,OVC,0.00,0.0,WeatherDisplay:10.37,2013-02-27 05:42:00,
2013-02-27 00:43:00,38.3,38.3,29.67,WSW,245,8.6,8.6,100,0.00,,OVC,0.00,0.0,WeatherDisplay:10.37,2013-02-27 05:43:00,
2013-02-27 00:45:00,38.3,38.3,29.67,SW,232,8.2,10.4,100,0.00,,OVC,0.00,0.0,WeatherDisplay:10.37,2013-02-27 05:45:00,
2013-02-27 00:46:00,38.3,38.3,29.67,WSW,238,8.7,12.7,100,0.00,,OVC,0.00,0.0,WeatherDisplay:10.37,2013-02-27 05:46:00,
2013-02-27 00:47:00,38.2,38.2,29.67,SW,236,13.8,16.1,100,0.00,,OVC,0.00,0.0,WeatherDisplay:10.37,2013-02-27 05:47:00,
2013-02-27 00:48:00,38.2,38.2,29.67,SW,229,12.8,16.1,100,0.00,,OVC,0.00,0.0,WeatherDisplay:10.37,2013-02-27 05:48:00,
2013-02-27 00:51:00,38.2,38.2,29.67,WSW,250,12.8,16.1,100,0.00,,OVC,0.00,0.0,WeatherDisplay:10.37,2013-02-27 05:51:00,
2013-02-27 00:52:00,38.2,38.2,29.67,WSW,237,13.6,17.0,100,0.00,,OVC,0.00,0.0,WeatherDisplay:10.37,2013-02-27 05:52:00,
2013-02-27 00:53:00,38.2,38.2,29.67,SW,235,14.1,14.1,100,0.00,,OVC,0.00,0.0,WeatherDisplay:10.37,2013-02-27 05:53:00,
2013-02-27 00:55:00,38.2,38.2,29.67,WSW,248,12.6,15.0,100,0.00,,OVC,0.00,0.0,WeatherDisplay:10.37,2013-02-27 05:55:00,
2013-02-27 00:56:00,38.2,38.2,29.67,WSW,241,10.6,16.1,100,0.00,,OVC,0.00,0.0,WeatherDisplay:10.37,2013-02-27 05:56:00,
2013-02-27 00:57:00,38.2,38.2,29.67,WSW,242,11.5,13.8,100,0.00,,OVC,0.00,0.0,WeatherDisplay:10.37,2013-02-27 05:57:00,
2013-02-27 00:58:00,38.2,38.2,29.67,WSW,237,10.0,13.8,100,0.00,,OVC,0.00,0.0,WeatherDisplay:10.37,2013-02-27 05:58:00,
2013-02-27 01:02:00,38.3,38.3,29.67,WSW,248,6.8,10.0,100,0.00,,OVC,0.00,0.0,WeatherDisplay:10.37,2013-02-27 06:02:00,
2013-02-27 01:03:00,38.3,38.3,29.67,WSW,248,7.8,10.4,100,0.00,,OVC,0.00,0.0,WeatherDisplay:10.37,2013-02-27 06:03:00,
2013-02-27 01:04:00,38.3,38.3,29.67,WSW,240,7.5,10.4,100,0.00,,OVC,0.00,0.0,WeatherDisplay:10.37,2013-02-27 06:04:00,
2013-02-27 01:08:00,38.3,38.3,29.67,WSW,244,6.5,10.4,100,0.00,,OVC,0.00,0.0,WeatherDisplay:10.37,2013-02-27 06:08:00,
2013-02-27 01:09:00,38.3,38.3,29.67,WSW,246,7.4,10.4,100,0.00,,OVC,0.00,0.0,WeatherDisplay:10.37,2013-02-27 06:09:00,
2013-02-27 01:10:00,38.3,38.3,29.67,WSW,240,6.7,10.4,100,0.00,,OVC,0.00,0.0,WeatherDisplay:10.37,2013-02-27 06:10:00,
2013-02-27 01:12:00,38.3,38.3,29.67,SW,221,6.6,10.4,100,0.00,,OVC,0.00,0.0,WeatherDisplay:10.37,2013-02-27 06:12:00,
2013-02-27 01:14:00,38.3,38.3,29.67,SW,219,4.9,6.9,100,0.00,,OVC,0.00,0.0,WeatherDisplay:10.37,2013-02-27 06:14:00,
2013-02-27 01:15:00,38.3,38.3,29.67,SW,234,5.0,12.0,100,0.00,,OVC,0.00,0.0,WeatherDisplay:10.37,2013-02-27 06:15:00,
2013-02-27 01:17:00,38.3,38.3,29.67,SW,218,9.2,10.4,100,0.00,,OVC,0.00,0.0,WeatherDisplay:10.37,2013-02-27 06:17:00,
2013-02-27 01:18:00,38.3,38.3,29.68,WSW,237,8.6,12.0,100,0.00,,OVC,0.00,0.0,WeatherDisplay:10.37,2013-02-27 06:18:00,
2013-02-27 01:20:00,38.3,38.3,29.68,WSW,242,6.5,11.5,100,0.00,,OVC,0.00,0.0,WeatherDisplay:10.37,2013-02-27 06:20:00,
2013-02-27 01:21:00,38.3,38.3,29.68,WSW,238,6.1,7.0,100,0.00,,OVC,0.00,0.0,WeatherDisplay:10.37,2013-02-27 06:21:00,
2013-02-27 01:24:00,38.3,38.3,29.68,SW,226,8.9,10.4,100,0.00,,OVC,0.00,0.0,WeatherDisplay:10.37,2013-02-27 06:24:00,
2013-02-27 01:25:00,38.2,38.2,29.68,SW,227,8.2,10.4,100,0.00,,OVC,0.00,0.0,WeatherDisplay:10.37,2013-02-27 06:25:00,
2013-02-27 01:26:00,38.2,38.2,29.68,SW,227,9.3,10.4,100,0.00,,OVC,0.00,0.0,WeatherDisplay:10.37,2013-02-27 06:26:00,
2013-02-27 01:27:00,38.2,38.2,29.68,SW,227,9.2,11.5,100,0.00,,OVC,0.00,0.0,WeatherDisplay:10.37,2013-02-27 06:27:00,
2013-02-27 01:29:00,38.2,38.2,29.68,SW,223,6.1,10.4,100,0.00,,OVC,0.00,0.0,WeatherDisplay:10.37,2013-02-27 06:29:00,
2013-02-27 01:32:00,38.3,38.3,29.68,SW,223,4.6,6.9,100,0.00,,OVC,0.00,0.0,WeatherDisplay:10.37,2013-02-27 06:32:00,
2013-02-27 01:33:00,38.3,38.3,29.67,SW,222,5.5,6.9,100,0.00,,OVC,0.00,0.0,WeatherDisplay:10.37,2013-02-27 06:33:00,
2013-02-27 01:37:00,38.3,38.3,29.67,SSW,213,5.3,9.2,100,0.00,,OVC,0.00,0.0,WeatherDisplay:10.37,2013-02-27 06:37:00,
2013-02-27 01:38:00,38.3,38.3,29.67,SSW,213,5.4,8.0,100,0.00,,OVC,0.00,0.0,WeatherDisplay:10.37,2013-02-27 06:38:00,
2013-02-27 01:42:00,38.2,38.2,29.67,SW,215,11.0,13.0,100,0.00,,OVC,0.00,0.0,WeatherDisplay:10.37,2013-02-27 06:42:00,
2013-02-27 01:43:00,38.2,38.2,29.67,SSW,213,10.3,11.5,100,0.00,,OVC,0.00,0.0,WeatherDisplay:10.37,2013-02-27 06:43:00,
2013-02-27 01:44:00,38.2,38.2,29.67,SSW,210,8.4,11.5,100,0.00,,OVC,0.00,0.0,WeatherDisplay:10.37,2013-02-27 06:44:00,
2013-02-27 01:47:00,38.2,38.2,29.67,SW,225,10.5,13.0,100,0.00,,OVC,0.00,0.0,WeatherDisplay:10.37,2013-02-27 06:47:00,
2013-02-27 01:49:00,38.2,38.2,29.67,SW,225,11.7,16.0,100,0.00,,OVC,0.00,0.0,WeatherDisplay:10.37,2013-02-27 06:49:00,
2013-02-27 01:52:00,38.2,38.2,29.67,SW,224,7.3,11.5,100,0.00,,OVC,0.00,0.0,WeatherDisplay:10.37,2013-02-27 06:52:00,
2013-02-27 01:54:00,38.3,38.3,29.67,SW,225,7.6,10.0,100,0.00,,OVC,0.00,0.0,WeatherDisplay:10.37,2013-02-27 06:54:00,
2013-02-27 01:57:00,38.3,38.3,29.67,WSW,244,9.7,10.4,100,0.00,,OVC,0.00,0.0,WeatherDisplay:10.37,2013-02-27 06:57:00,
2013-02-27 01:58:00,38.3,38.3,29.67,WSW,248,9.5,11.5,100,0.00,,OVC,0.00,0.0,WeatherDisplay:10.37,2013-02-27 06:58:00,
2013-02-27 02:00:00,38.3,38.3,29.67,WSW,251,6.7,9.2,100,0.00,,OVC,0.00,0.0,WeatherDisplay:10.37,2013-02-27 07:00:00,
2013-02-27 02:03:00,38.3,38.3,29.67,WSW,248,8.2,10.4,100,0.00,,OVC,0.00,0.0,WeatherDisplay:10.37,2013-02-27 07:03:00,
2013-02-27 02:05:00,38.3,38.3,29.68,WSW,250,7.3,11.0,100,0.00,,OVC,0.00,0.0,WeatherDisplay:10.37,2013-02-27 07:05:00,
2013-02-27 02:08:00,38.3,38.3,29.68,WSW,242,10.2,12.7,100,0.00,,OVC,0.00,0.0,WeatherDisplay:10.37,2013-02-27 07:08:00,
2013-02-27 02:10:00,38.3,38.3,29.68,WSW,238,7.8,11.5,100,0.00,,OVC,0.00,0.0,WeatherDisplay:10.37,2013-02-27 07:10:00,
2013-02-27 02:11:00,38.3,38.3,29.68,WSW,238,6.5,11.5,100,0.00,,OVC,0.00,0.0,WeatherDisplay:10.37,2013-02-27 07:11:00,
2013-02-27 02:13:00,38.3,38.3,29.68,WSW,240,8.6,11.5,100,0.00,,OVC,0.00,0.0,WeatherDisplay:10.37,2013-02-27 07:13:00,
2013-02-27 02:17:00,38.5,38.5,29.68,WSW,240,6.4,10.0,100,0.00,,OVC,0.00,0.0,WeatherDisplay:10.37,2013-02-27 07:17:00,
2013-02-27 02:18:00,38.5,38.5,29.68,WSW,239,8.3,10.4,100,0.00,,OVC,0.00,0.0,WeatherDisplay:10.37,2013-02-27 07:18:00,
2013-02-27 02:21:00,38.5,38.5,29.68,SW,229,9.0,10.4,100,0.00,,OVC,0.00,0.0,WeatherDisplay:10.37,2013-02-27 07:21:00,
2013-02-27 02:22:00,38.5,38.5,29.68,SW,221,7.7,11.0,100,0.00,,OVC,0.00,0.0,WeatherDisplay:10.37,2013-02-27 07:22:00,
2013-02-27 02:23:00,38.5,38.5,29.68,SW,223,8.5,11.5,100,0.00,,OVC,0.00,0.0,WeatherDisplay:10.37,2013-02-27 07:23:00,
2013-02-27 02:27:00,38.5,38.5,29.68,SW,235,11.8,13.8,100,0.00,,OVC,0.00,0.0,WeatherDisplay:10.37,2013-02-27 07:27:00,
2013-02-27 02:28:00,38.5,38.5,29.68,SSW,211,12.2,16.0,100,0.00,,OVC,0.00,0.0,WeatherDisplay:10.37,2013-02-27 07:28:00,
2013-02-27 02:29:00,38.3,38.3,29.68,SW,223,13.3,18.4,100,0.00,,OVC,0.00,0.0,WeatherDisplay:10.37,2013-02-27 07:29:00,
2013-02-27 02:32:00,38.3,38.3,29.68,SW,222,14.7,16.1,100,0.00,,OVC,0.00,0.0,WeatherDisplay:10.37,2013-02-27 07:32:00,
2013-02-27 02:33:00,38.3,38.3,29.68,SW,223,15.7,19.0,100,0.00,,OVC,0.00,0.0,WeatherDisplay:10.37,2013-02-27 07:33:00,
2013-02-27 02:34:00,38.3,38.3,29.68,WSW,237,16.3,19.6,100,0.00,,OVC,0.00,0.0,WeatherDisplay:10.37,2013-02-27 07:34:00,
2013-02-27 02:36:00,38.3,38.3,29.68,SW,222,13.8,17.3,100,0.00,,OVC,0.00,0.0,WeatherDisplay:10.37,2013-02-27 07:36:00,
2013-02-27 02:37:00,38.3,38.3,29.68,SW,218,15.2,18.4,100,0.00,,OVC,0.00,0.0,WeatherDisplay:10.37,2013-02-27 07:37:00,
2013-02-27 02:40:00,38.3,38.3,29.68,SW,217,12.5,18.4,100,0.00,,OVC,0.00,0.0,WeatherDisplay:10.37,2013-02-27 07:40:00,
2013-02-27 02:41:00,38.3,38.3,29.68,SW,227,13.0,15.0,100,0.00,,OVC,0.00,0.0,WeatherDisplay:10.37,2013-02-27 07:41:00,
2013-02-27 02:43:00,38.3,38.3,29.68,SW,234,11.5,14.0,100,0.00,,OVC,0.00,0.0,WeatherDisplay:10.37,2013-02-27 07:43:00,
2013-02-27 02:44:00,38.3,38.3,29.68,SW,230,12.8,13.8,100,0.00,,OVC,0.00,0.0,WeatherDisplay:10.37,2013-02-27 07:44:00,
2013-02-27 02:46:00,38.3,38.3,29.68,SW,229,11.1,13.8,100,0.00,,OVC,0.00,0.0,WeatherDisplay:10.37,2013-02-27 07:46:00,
2013-02-27 02:47:00,38.3,38.3,29.68,SW,231,11.6,15.0,100,0.00,,OVC,0.00,0.0,WeatherDisplay:10.37,2013-02-27 07:47:00,
2013-02-27 02:50:00,38.3,38.3,29.67,SW,215,10.7,13.8,100,0.00,,OVC,0.00,0.0,WeatherDisplay:10.37,2013-02-27 07:50:00,
2013-02-27 02:51:00,38.3,38.3,29.67,SW,225,8.1,11.5,100,0.00,,OVC,0.00,0.0,WeatherDisplay:10.37,2013-02-27 07:51:00,
2013-02-27 02:52:00,38.3,38.3,29.67,SW,225,8.1,10.4,100,0.00,,OVC,0.00,0.0,WeatherDisplay:10.37,2013-02-27 07:52:00,
2013-02-27 02:54:00,38.3,38.3,29.67,SW,225,6.6,10.4,100,0.00,,OVC,0.00,0.0,WeatherDisplay:10.37,2013-02-27 07:54:00,
2013-02-27 02:55:00,38.3,38.3,29.67,SW,229,6.3,8.1,100,0.00,,OVC,0.00,0.0,WeatherDisplay:10.37,2013-02-27 07:55:00,
2013-02-27 02:56:00,38.3,38.3,29.67,SW,229,5.6,9.2,100,0.00,,OVC,0.00,0.0,WeatherDisplay:10.37,2013-02-27 07:56:00,
2013-02-27 02:57:00,38.3,38.3,29.67,SW,230,8.1,9.0,100,0.00,,OVC,0.00,0.0,WeatherDisplay:10.37,2013-02-27 07:57:00,
2013-02-27 02:59:00,38.3,38.3,29.67,SW,230,4.8,8.1,100,0.00,,OVC,0.00,0.0,WeatherDisplay:10.37,2013-02-27 07:59:00,
2013-02-27 03:02:00,38.3,38.3,29.67,SW,230,6.1,8.0,100,0.00,,OVC,0.00,0.0,WeatherDisplay:10.37,2013-02-27 08:02:00,
2013-02-27 03:05:00,38.3,38.3,29.67,SW,233,5.1,8.1,100,0.00,,OVC,0.00,0.0,WeatherDisplay:10.37,2013-02-27 08:05:00,
2013-02-27 03:07:00,38.3,38.3,29.67,SW,223,7.6,11.5,100,0.00,,OVC,0.00,0.0,WeatherDisplay:10.37,2013-02-27 08:07:00,
2013-02-27 03:08:00,38.3,38.3,29.67,SW,223,7.9,11.5,100,0.00,,OVC,0.00,0.0,WeatherDisplay:10.37,2013-02-27 08:08:00,
2013-02-27 03:09:00,38.3,38.3,29.67,SW,222,6.2,11.5,100,0.00,,OVC,0.00,0.0,WeatherDisplay:10.37,2013-02-27 08:09:00,
2013-02-27 03:10:00,38.3,38.3,29.67,SW,225,6.2,6.9,100,0.00,,OVC,0.00,0.0,WeatherDisplay:10.37,2013-02-27 08:10:00,
2013-02-27 03:12:00,38.3,38.3,29.67,SW,225,5.0,6.9,100,0.00,,OVC,0.00,0.0,WeatherDisplay:10.37,2013-02-27 08:12:00,
2013-02-27 03:13:00,38.3,38.3,29.67,SW,225,5.3,6.0,100,0.00,,OVC,0.00,0.0,WeatherDisplay:10.37,2013-02-27 08:13:00,
2013-02-27 03:14:00,38.3,38.3,29.67,SW,225,5.1,5.8,100,0.00,,OVC,0.00,0.0,WeatherDisplay:10.37,2013-02-27 08:14:00,
2013-02-27 03:15:00,38.3,38.3,29.67,SW,225,5.7,7.0,100,0.00,,OVC,0.00,0.0,WeatherDisplay:10.37,2013-02-27 08:15:00,
2013-02-27 03:18:00,38.3,38.3,29.66,SW,225,4.6,6.0,100,0.00,,OVC,0.00,0.0,WeatherDisplay:10.37,2013-02-27 08:18:00,
2013-02-27 03:19:00,38.3,38.3,29.66,SW,225,5.6,6.0,100,0.00,,OVC,0.00,0.0,WeatherDisplay:10.37,2013-02-27 08:19:00,
2013-02-27 03:22:00,38.3,38.3,29.66,SW,226,6.2,7.0,100,0.00,,OVC,0.00,0.0,WeatherDisplay:10.37,2013-02-27 08:22:00,
2013-02-27 03:23:00,38.3,38.3,29.66,SW,226,5.0,6.9,100,0.00,,OVC,0.00,0.0,WeatherDisplay:10.37,2013-02-27 08:23:00,
2013-02-27 03:24:00,38.3,38.3,29.66,SW,226,4.8,5.8,100,0.00,,OVC,0.00,0.0,WeatherDisplay:10.37,2013-02-27 08:24:00,
2013-02-27 03:26:00,38.3,38.3,29.66,SW,226,4.6,5.0,100,0.00,,OVC,0.00,0.0,WeatherDisplay:10.37,2013-02-27 08:26:00,
2013-02-27 03:28:00,38.3,38.3,29.66,SW,227,6.0,7.0,100,0.00,,OVC,0.00,0.0,WeatherDisplay:10.37,2013-02-27 08:28:00,
2013-02-27 03:30:00,38.3,38.3,29.66,SW,227,5.7,7.0,100,0.00,,OVC,0.00,0.0,WeatherDisplay:10.37,2013-02-27 08:30:00,
2013-02-27 03:33:00,38.3,38.3,29.66,SW,227,5.0,7.0,100,0.00,,OVC,0.00,0.0,WeatherDisplay:10.37,2013-02-27 08:33:00,
2013-02-27 03:34:00,38.3,38.3,29.66,SW,227,5.7,6.0,100,0.00,,OVC,0.00,0.0,WeatherDisplay:10.37,2013-02-27 08:34:00,
2013-02-27 03:35:00,38.3,38.3,29.67,SW,227,5.5,7.0,100,0.00,,OVC,0.00,0.0,WeatherDisplay:10.37,2013-02-27 08:35:00,
2013-02-27 03:39:00,38.5,38.5,29.67,SW,227,4.0,5.8,100,0.00,,OVC,0.00,0.0,WeatherDisplay:10.37,2013-02-27 08:39:00,
2013-02-27 03:40:00,38.5,38.5,29.67,SW,227,3.8,4.6,100,0.00,,OVC,0.00,0.0,WeatherDisplay:10.37,2013-02-27 08:40:00,
2013-02-27 03:41:00,38.5,38.5,29.67,SW,227,3.8,4.6,100,0.00,,OVC,0.00,0.0,WeatherDisplay:10.37,2013-02-27 08:41:00,
2013-02-27 03:42:00,38.5,38.5,29.67,SW,227,3.7,4.6,100,0.00,,OVC,0.00,0.0,WeatherDisplay:10.37,2013-02-27 08:42:00,
2013-02-27 03:45:00,38.5,38.5,29.67,SW,232,4.5,4.6,100,0.00,,OVC,0.00,0.0,WeatherDisplay:10.37,2013-02-27 08:45:00,
2013-02-27 03:46:00,38.5,38.5,29.67,SW,232,3.7,4.6,100,0.00,,OVC,0.00,0.0,WeatherDisplay:10.37,2013-02-27 08:46:00,
2013-02-27 03:47:00,38.5,38.5,29.67,SW,232,3.7,4.6,100,0.00,,OVC,0.00,0.0,WeatherDisplay:10.37,2013-02-27 08:47:00,
2013-02-27 03:51:00,38.5,38.5,29.67,SW,235,5.7,10.4,100,0.00,,OVC,0.00,0.0,WeatherDisplay:10.37,2013-02-27 08:51:00,
2013-02-27 03:53:00,38.5,38.5,29.67,SW,236,4.6,5.8,100,0.00,,OVC,0.00,0.0,WeatherDisplay:10.37,2013-02-27 08:53:00,
2013-02-27 03:55:00,38.5,38.5,29.67,SW,236,4.9,5.8,100,0.00,,OVC,0.00,0.0,WeatherDisplay:10.37,2013-02-27 08:55:00,
2013-02-27 03:56:00,38.5,38.5,29.67,SW,236,4.3,5.8,100,0.00,,OVC,0.00,0.0,WeatherDisplay:10.37,2013-02-27 08:56:00,
2013-02-27 03:58:00,38.5,38.5,29.67,SW,236,4.7,6.0,100,0.00,,OVC,0.00,0.0,WeatherDisplay:10.37,2013-02-27 08:58:00,
2013-02-27 04:00:00,38.5,38.5,29.67,SW,236,6.0,10.0,100,0.00,,OVC,0.00,0.0,WeatherDisplay:10.37,2013-02-27 09:00:00,
2013-02-27 04:01:00,38.5,38.5,29.67,SW,236,5.1,6.9,100,0.00,,OVC,0.00,0.0,WeatherDisplay:10.37,2013-02-27 09:01:00,
2013-02-27 04:04:00,38.5,38.5,29.67,SW,236,4.9,9.2,100,0.00,,OVC,0.00,0.0,WeatherDisplay:10.37,2013-02-27 09:04:00,
2013-02-27 04:05:00,38.5,38.5,29.67,SW,236,4.3,9.2,100,0.00,,OVC,0.00,0.0,WeatherDisplay:10.37,2013-02-27 09:05:00,
2013-02-27 04:07:00,38.5,38.5,29.67,SW,236,4.3,4.3,100,0.00,,OVC,0.00,0.0,WeatherDisplay:10.37,2013-02-27 09:07:00,
2013-02-27 04:09:00,38.5,38.5,29.67,SW,236,3.4,5.0,100,0.00,,OVC,0.00,0.0,WeatherDisplay:10.37,2013-02-27 09:09:00,
2013-02-27 04:10:00,38.5,38.5,29.67,SW,236,5.0,6.0,100,0.00,,OVC,0.00,0.0,WeatherDisplay:10.37,2013-02-27 09:10:00,
2013-02-27 04:13:00,38.6,38.6,29.67,SW,236,5.4,7.0,100,0.00,,OVC,0.00,0.0,WeatherDisplay:10.37,2013-02-27 09:13:00,
2013-02-27 04:14:00,38.5,38.5,29.67,SW,236,5.1,6.9,100,0.00,,OVC,0.00,0.0,WeatherDisplay:10.37,2013-02-27 09:14:00,
2013-02-27 04:15:00,38.5,38.5,29.67,SW,236,4.8,5.8,100,0.00,,OVC,0.00,0.0,WeatherDisplay:10.37,2013-02-27 09:15:00,
2013-02-27 04:16:00,38.6,38.6,29.67,SW,236,4.8,5.8,100,0.00,,OVC,0.00,0.0,WeatherDisplay:10.37,2013-02-27 09:16:00,
2013-02-27 04:20:00,38.6,38.6,29.67,SW,236,2.7,3.5,100,0.00,,OVC,0.00,0.0,WeatherDisplay:10.37,2013-02-27 09:20:00,
2013-02-27 04:21:00,38.6,38.6,29.67,SW,236,2.7,3.5,100,0.00,,OVC,0.00,0.0,WeatherDisplay:10.37,2013-02-27 09:21:00,
2013-02-27 04:22:00,38.6,38.6,29.67,SW,236,3.1,4.0,100,0.00,,OVC,0.00,0.0,WeatherDisplay:10.37,2013-02-27 09:22:00,
2013-02-27 04:26:00,38.6,38.6,29.67,SW,236,3.9,5.8,100,0.00,,OVC,0.00,0.0,WeatherDisplay:10.37,2013-02-27 09:26:00,
2013-02-27 04:27:00,38.6,38.6,29.67,SW,236,3.5,5.8,100,0.00,,OVC,0.00,0.0,WeatherDisplay:10.37,2013-02-27 09:27:00,
2013-02-27 04:28:00,38.6,38.6,29.67,SW,236,3.2,6.0,100,0.00,,OVC,0.00,0.0,WeatherDisplay:10.37,2013-02-27 09:28:00,
2013-02-27 04:32:00,38.6,38.6,29.67,SW,236,5.2,6.0,100,0.00,,OVC,0.00,0.0,WeatherDisplay:10.37,2013-02-27 09:32:00,
2013-02-27 04:33:00,38.6,38.6,29.67,SW,236,5.1,5.8,100,0.00,,OVC,0.00,0.0,WeatherDisplay:10.37,2013-02-27 09:33:00,
2013-02-27 04:34:00,38.6,38.6,29.68,SW,236,4.3,6.0,100,0.00,,OVC,0.00,0.0,WeatherDisplay:10.37,2013-02-27 09:34:00,
2013-02-27 04:37:00,38.6,38.6,29.68,SW,236,5.1,5.8,100,0.00,,OVC,0.00,0.0,WeatherDisplay:10.37,2013-02-27 09:37:00,
2013-02-27 04:38:00,38.6,38.6,29.68,SW,236,4.2,5.8,100,0.00,,OVC,0.00,0.0,WeatherDisplay:10.37,2013-02-27 09:38:00,
2013-02-27 04:42:00,38.8,38.8,29.68,SW,236,5.3,6.9,100,0.00,,OVC,0.00,0.0,WeatherDisplay:10.37,2013-02-27 09:42:00,
2013-02-27 04:43:00,38.8,38.8,29.68,SW,236,5.9,7.0,100,0.00,,OVC,0.00,0.0,WeatherDisplay:10.37,2013-02-27 09:43:00,
2013-02-27 04:44:00,38.8,38.8,29.68,SW,236,5.8,5.8,100,0.00,,OVC,0.00,0.0,WeatherDisplay:10.37,2013-02-27 09:44:00,
2013-02-27 04:46:00,38.8,38.8,29.68,SW,236,4.2,4.6,100,0.00,,OVC,0.00,0.0,WeatherDisplay:10.37,2013-02-27 09:46:00,
2013-02-27 04:47:00,38.8,38.8,29.68,SW,236,3.7,4.6,100,0.00,,OVC,0.00,0.0,WeatherDisplay:10.37,2013-02-27 09:47:00,
2013-02-27 04:49:00,38.8,38.8,29.69,SW,236,3.2,3.5,100,0.00,,OVC,0.00,0.0,WeatherDisplay:10.37,2013-02-27 09:49:00,
2013-02-27 04:52:00,38.8,38.8,29.69,SW,236,3.9,5.0,100,0.00,,OVC,0.00,0.0,WeatherDisplay:10.37,2013-02-27 09:52:00,
2013-02-27 04:53:00,38.8,38.8,29.69,SW,236,4.3,5.0,100,0.00,,OVC,0.00,0.0,WeatherDisplay:10.37,2013-02-27 09:53:00,
2013-02-27 04:56:00,38.8,38.8,29.69,SW,236,4.6,5.0,100,0.00,,OVC,0.00,0.0,WeatherDisplay:10.37,2013-02-27 09:56:00,
2013-02-27 04:58:00,38.8,38.8,29.69,SW,236,5.6,6.0,100,0.00,,OVC,0.00,0.0,WeatherDisplay:10.37,2013-02-27 09:58:00,
2013-02-27 04:59:00,38.8,38.8,29.69,SW,236,4.9,5.8,100,0.00,,OVC,0.00,0.0,WeatherDisplay:10.37,2013-02-27 09:59:00,
2013-02-27 05:01:00,38.8,38.8,29.69,SW,236,5.4,6.9,100,0.00,,OVC,0.00,0.0,WeatherDisplay:10.37,2013-02-27 10:01:00,
2013-02-27 05:03:00,38.9,38.9,29.69,SW,236,5.4,9.2,100,0.00,,OVC,0.00,0.0,WeatherDisplay:10.37,2013-02-27 10:03:00,
2013-02-27 05:04:00,38.9,38.9,29.69,SW,236,4.8,6.0,100,0.00,,OVC,0.00,0.0,WeatherDisplay:10.37,2013-02-27 10:04:00,
2013-02-27 05:06:00,38.9,38.9,29.69,SW,231,9.4,12.0,100,0.00,,OVC,0.00,0.0,WeatherDisplay:10.37,2013-02-27 10:06:00,
2013-02-27 05:07:00,38.9,38.9,29.69,WSW,239,10.5,11.5,100,0.00,,OVC,0.00,0.0,WeatherDisplay:10.37,2013-02-27 10:07:00,
2013-02-27 05:08:00,38.9,38.9,29.69,WSW,240,6.4,11.5,100,0.00,,OVC,0.00,0.0,WeatherDisplay:10.37,2013-02-27 10:08:00,
2013-02-27 05:09:00,38.9,38.9,29.69,WSW,252,8.1,10.4,100,0.00,,OVC,0.00,0.0,WeatherDisplay:10.37,2013-02-27 10:09:00,
2013-02-27 05:11:00,38.9,38.9,29.69,WSW,252,9.9,12.0,100,0.00,,OVC,0.00,0.0,WeatherDisplay:10.37,2013-02-27 10:11:00,
2013-02-27 05:13:00,38.9,38.9,29.69,WSW,240,8.8,12.7,100,0.00,,OVC,0.00,0.0,WeatherDisplay:10.37,2013-02-27 10:13:00,
2013-02-27 05:14:00,38.9,38.9,29.69,WSW,254,10.2,12.7,100,0.00,,OVC,0.00,0.0,WeatherDisplay:10.37,2013-02-27 10:14:00,
2013-02-27 05:15:00,38.9,38.9,29.69,WSW,246,9.0,16.0,100,0.00,,OVC,0.00,0.0,WeatherDisplay:10.37,2013-02-27 10:15:00,
2013-02-27 05:19:00,38.9,38.9,29.69,SW,226,5.4,6.9,100,0.00,,OVC,0.00,0.0,WeatherDisplay:10.37,2013-02-27 10:19:00,
2013-02-27 05:20:00,38.9,38.9,29.69,WSW,254,5.7,8.0,100,0.00,,OVC,0.00,0.0,WeatherDisplay:10.37,2013-02-27 10:20:00,
2013-02-27 05:21:00,38.9,38.9,29.70,WSW,254,6.9,8.1,100,0.00,,OVC,0.00,0.0,WeatherDisplay:10.37,2013-02-27 10:21:00,
2013-02-27 05:22:00,38.9,38.9,29.70,WSW,256,6.4,8.1,100,0.00,,OVC,0.00,0.0,WeatherDisplay:10.37,2013-02-27 10:22:00,
2013-02-27 05:25:00,38.9,38.9,29.70,WSW,255,10.5,13.8,100,0.00,,OVC,0.00,0.0,WeatherDisplay:10.37,2013-02-27 10:25:00,
2013-02-27 05:26:00,38.9,38.9,29.70,WSW,250,8.1,10.4,100,0.00,,OVC,0.00,0.0,WeatherDisplay:10.37,2013-02-27 10:26:00,
2013-02-27 05:27:00,38.9,38.9,29.70,WSW,258,9.5,12.0,100,0.00,,OVC,0.00,0.0,WeatherDisplay:10.37,2013-02-27 10:27:00,
2013-02-27 05:28:00,38.9,38.9,29.70,West,259,8.9,12.7,100,0.00,,OVC,0.00,0.0,WeatherDisplay:10.37,2013-02-27 10:28:00,
2013-02-27 05:30:00,38.9,38.9,29.70,WSW,257,7.7,11.5,100,0.00,,OVC,0.00,0.0,WeatherDisplay:10.37,2013-02-27 10:30:00,
2013-02-27 05:32:00,38.9,38.9,29.70,SW,232,10.5,12.7,100,0.00,,OVC,0.00,0.0,WeatherDisplay:10.37,2013-02-27 10:32:00,
2013-02-27 05:34:00,38.8,38.8,29.70,WSW,257,10.0,12.7,100,0.00,,OVC,0.00,0.0,WeatherDisplay:10.37,2013-02-27 10:34:00,
2013-02-27 05:37:00,38.8,38.8,29.70,WSW,251,7.5,11.0,100,0.00,,OVC,0.00,0.0,WeatherDisplay:10.37,2013-02-27 10:37:00,
2013-02-27 05:38:00,38.8,38.8,29.70,WSW,248,10.7,14.0,100,0.00,,OVC,0.00,0.0,WeatherDisplay:10.37,2013-02-27 10:38:00,
2013-02-27 05:40:00,38.8,38.8,29.70,WSW,249,8.4,13.8,100,0.00,,OVC,0.00,0.0,WeatherDisplay:10.37,2013-02-27 10:40:00,
2013-02-27 05:42:00,38.8,38.8,29.70,WSW,240,10.3,12.0,100,0.00,,OVC,0.00,0.0,WeatherDisplay:10.37,2013-02-27 10:42:00,
2013-02-27 05:45:00,38.8,38.8,29.70,West,259,8.5,11.5,100,0.00,,OVC,0.00,0.0,WeatherDisplay:10.37,2013-02-27 10:45:00,
2013-02-27 05:46:00,38.8,38.8,29.70,West,259,8.9,11.5,100,0.00,,OVC,0.00,0.0,WeatherDisplay:10.37,2013-02-27 10:46:00,
2013-02-27 05:49:00,38.8,38.8,29.72,WSW,243,10.9,12.7,100,0.00,,OVC,0.00,0.0,WeatherDisplay:10.37,2013-02-27 10:49:00,
2013-02-27 05:50:00,38.8,38.8,29.72,WSW,257,7.8,12.7,100,0.00,,OVC,0.00,0.0,WeatherDisplay:10.37,2013-02-27 10:50:00,
2013-02-27 05:55:00,38.8,38.8,29.72,WSW,257,7.4,11.5,100,0.00,,OVC,0.00,0.0,WeatherDisplay:10.37,2013-02-27 10:55:00,
2013-02-27 05:56:00,38.8,38.8,29.72,WSW,248,6.6,11.0,100,0.00,,OVC,0.00,0.0,WeatherDisplay:10.37,2013-02-27 10:56:00,
2013-02-27 06:00:00,38.6,38.6,29.72,WSW,258,8.8,11.5,100,0.00,,OVC,0.00,0.0,WeatherDisplay:10.37,2013-02-27 11:00:00,
2013-02-27 06:04:00,38.6,38.6,29.72,WSW,249,11.5,17.3,100,0.00,,OVC,0.00,0.0,WeatherDisplay:10.37,2013-02-27 11:04:00,
2013-02-27 06:05:00,38.6,38.6,29.72,WSW,251,11.1,15.0,100,0.00,,OVC,0.00,0.0,WeatherDisplay:10.37,2013-02-27 11:05:00,
2013-02-27 06:06:00,38.6,38.6,29.72,WSW,257,10.4,12.7,100,0.00,,OVC,0.00,0.0,WeatherDisplay:10.37,2013-02-27 11:06:00,
2013-02-27 06:07:00,38.6,38.6,29.72,WSW,252,10.1,15.0,100,0.00,,OVC,0.00,0.0,WeatherDisplay:10.37,2013-02-27 11:07:00,
2013-02-27 06:11:00,38.6,38.6,29.72,WSW,253,6.5,11.5,100,0.00,,OVC,0.00,0.0,WeatherDisplay:10.37,2013-02-27 11:11:00,
2013-02-27 06:12:00,38.6,38.6,29.72,WSW,258,7.0,10.4,100,0.00,,OVC,0.00,0.0,WeatherDisplay:10.37,2013-02-27 11:12:00,
2013-02-27 06:14:00,38.6,38.6,29.72,West,265,5.9,10.4,100,0.00,,OVC,0.00,0.0,WeatherDisplay:10.37,2013-02-27 11:14:00,
2013-02-27 06:16:00,38.6,38.6,29.72,WSW,247,8.2,10.4,100,0.00,,OVC,0.00,0.0,WeatherDisplay:10.37,2013-02-27 11:16:00,
2013-02-27 06:17:00,38.6,38.6,29.72,West,266,9.1,13.8,100,0.00,,OVC,0.00,0.0,WeatherDisplay:10.37,2013-02-27 11:17:00,
2013-02-27 06:20:00,38.6,38.6,29.73,WSW,258,8.5,13.0,100,0.00,,OVC,0.00,0.0,WeatherDisplay:10.37,2013-02-27 11:20:00,
2013-02-27 06:21:00,38.6,38.6,29.73,West,267,8.8,12.7,100,0.00,,OVC,0.00,0.0,WeatherDisplay:10.37,2013-02-27 11:21:00,
2013-02-27 06:22:00,38.5,38.5,29.73,West,266,6.7,10.4,100,0.00,OVC,,0.00,0.0,WeatherDisplay:10.37,2013-02-27 11:22:00,
2013-02-27 06:25:00,38.5,38.5,29.73,West,269,5.4,9.2,100,0.00,OVC,,0.00,0.0,WeatherDisplay:10.37,2013-02-27 11:25:00,
2013-02-27 06:26:00,38.5,38.5,29.73,West,265,6.1,8.0,100,0.00,OVC,,0.00,0.0,WeatherDisplay:10.37,2013-02-27 11:26:00,
2013-02-27 06:27:00,38.5,38.5,29.73,West,265,5.7,9.0,100,0.00,OVC,,0.00,0.0,WeatherDisplay:10.37,2013-02-27 11:27:00,
2013-02-27 06:31:00,38.5,38.5,29.73,WSW,255,7.9,10.4,100,0.00,OVC,,0.00,0.0,WeatherDisplay:10.37,2013-02-27 11:31:00,
2013-02-27 06:32:00,38.5,38.5,29.73,WSW,254,7.3,10.4,100,0.00,OVC,,0.00,0.0,WeatherDisplay:10.37,2013-02-27 11:32:00,
2013-02-27 06:33:00,38.3,38.3,29.73,WSW,255,7.3,10.4,100,0.00,OVC,,0.00,0.0,WeatherDisplay:10.37,2013-02-27 11:33:00,
2013-02-27 06:36:00,38.3,38.3,29.74,WSW,255,11.0,12.0,100,0.00,OVC,,0.00,0.0,WeatherDisplay:10.37,2013-02-27 11:36:00,
2013-02-27 06:37:00,38.3,38.3,29.74,WSW,252,11.9,13.8,100,0.00,OVC,,0.00,0.0,WeatherDisplay:10.37,2013-02-27 11:37:00,
2013-02-27 06:38:00,38.3,38.3,29.74,WSW,253,7.3,13.8,100,0.00,OVC,,0.00,0.0,WeatherDisplay:10.37,2013-02-27 11:38:00,
2013-02-27 06:39:00,38.3,38.3,29.74,WSW,244,6.7,9.2,100,0.00,OVC,,0.00,0.0,WeatherDisplay:10.37,2013-02-27 11:39:00,
2013-02-27 06:42:00,38.2,38.2,29.74,WSW,238,11.4,13.8,100,0.00,OVC,,0.00,0.0,WeatherDisplay:10.37,2013-02-27 11:42:00,
2013-02-27 06:44:00,38.2,38.2,29.74,West,259,6.7,11.5,100,0.00,OVC,,0.00,0.0,WeatherDisplay:10.37,2013-02-27 11:44:00,
2013-02-27 06:48:00,38.2,38.2,29.74,West,261,6.6,9.0,100,0.00,OVC,,0.00,0.0,WeatherDisplay:10.37,2013-02-27 11:48:00,
2013-02-27 06:49:00,38.0,38.0,29.74,West,261,5.2,9.2,100,0.00,OVC,,0.00,0.0,WeatherDisplay:10.37,2013-02-27 11:49:00,
2013-02-27 06:50:00,38.0,38.0,29.74,West,261,4.8,9.2,100,0.00,OVC,,0.00,0.0,WeatherDisplay:10.37,2013-02-27 11:50:00,
2013-02-27 06:51:00,38.0,38.0,29.74,WSW,251,7.2,11.5,100,0.00,OVC,,0.00,0.0,WeatherDisplay:10.37,2013-02-27 11:51:00,
2013-02-27 06:54:00,38.0,38.0,29.74,West,267,9.5,11.5,100,0.00,OVC,,0.00,0.0,WeatherDisplay:10.37,2013-02-27 11:54:00,
2013-02-27 06:55:00,37.9,37.9,29.74,West,262,7.5,10.4,100,0.00,OVC,,0.00,0.0,WeatherDisplay:10.37,2013-02-27 11:55:00,
2013-02-27 06:56:00,37.9,37.9,29.74,West,262,7.9,10.4,100,0.00,OVC,,0.00,0.0,WeatherDisplay:10.37,2013-02-27 11:56:00,
2013-02-27 06:58:00,37.9,37.9,29.74,West,263,5.0,5.8,100,0.00,OVC,,0.00,0.0,WeatherDisplay:10.37,2013-02-27 11:58:00,
2013-02-27 07:01:00,37.9,37.9,29.74,West,263,4.4,6.0,100,0.00,OVC,,0.00,0.0,WeatherDisplay:10.37,2013-02-27 12:01:00,
2013-02-27 07:03:00,37.9,37.9,29.74,West,263,4.1,5.0,100,0.00,OVC,,0.00,5.0,WeatherDisplay:10.37,2013-02-27 12:03:00,
2013-02-27 07:06:00,37.8,37.8,29.74,West,263,4.3,6.0,100,0.00,OVC,,0.00,9.0,WeatherDisplay:10.37,2013-02-27 12:06:00,
2013-02-27 07:08:00,37.8,37.8,29.74,West,263,5.1,6.9,100,0.00,OVC,,0.00,9.0,WeatherDisplay:10.37,2013-02-27 12:08:00,
2013-02-27 07:09:00,37.8,37.8,29.74,West,263,4.7,6.9,100,0.00,OVC,,0.00,12.0,WeatherDisplay:10.37,2013-02-27 12:09:00,
2013-02-27 07:13:00,37.6,37.6,29.74,West,263,5.1,6.9,100,0.00,OVC,,0.00,16.0,WeatherDisplay:10.37,2013-02-27 12:13:00,
2013-02-27 07:15:00,37.5,37.5,29.74,West,263,5.0,7.0,100,0.00,OVC,OVC,0.00,18.0,WeatherDisplay:10.37,2013-02-27 12:15:00,
2013-02-27 07:17:00,37.5,37.5,29.74,West,263,4.5,4.6,100,0.00,OVC,,0.00,30.0,WeatherDisplay:10.37,2013-02-27 12:17:00,
2013-02-27 07:20:00,37.3,37.3,29.74,West,263,4.8,5.8,100,0.00,OVC,,0.00,42.0,WeatherDisplay:10.37,2013-02-27 12:20:00,
2013-02-27 07:21:00,37.3,37.3,29.75,West,263,4.3,5.0,100,0.00,OVC,,0.00,49.0,WeatherDisplay:10.37,2013-02-27 12:21:00,
2013-02-27 07:22:00,37.3,37.3,29.75,West,263,4.4,5.0,100,0.00,OVC,,0.00,49.0,WeatherDisplay:10.37,2013-02-27 12:22:00,
2013-02-27 07:24:00,37.3,37.3,29.75,West,263,2.6,3.5,100,0.00,OVC,,0.00,58.0,WeatherDisplay:10.37,2013-02-27 12:24:00,
2013-02-27 07:25:00,37.3,37.3,29.75,West,263,2.0,3.5,100,0.00,OVC,,0.00,58.0,WeatherDisplay:10.37,2013-02-27 12:25:00,
2013-02-27 07:27:00,37.3,37.3,29.75,West,263,2.6,4.0,100,0.00,OVC,,0.00,65.0,WeatherDisplay:10.37,2013-02-27 12:27:00,
2013-02-27 07:30:00,37.5,37.5,29.75,West,263,3.6,4.6,100,0.00,OVC,,0.00,74.0,WeatherDisplay:10.37,2013-02-27 12:30:00,
2013-02-27 07:31:00,37.5,37.5,29.75,West,263,2.9,4.6,100,0.00,OVC,,0.00,76.0,WeatherDisplay:10.37,2013-02-27 12:31:00,
2013-02-27 07:32:00,37.5,37.5,29.75,West,263,3.8,5.0,100,0.00,OVC,,0.00,77.0,WeatherDisplay:10.37,2013-02-27 12:32:00,
2013-02-27 07:36:00,37.5,37.5,29.75,West,263,4.3,5.0,100,0.00,OVC,,0.00,81.0,WeatherDisplay:10.37,2013-02-27 12:36:00,
2013-02-27 07:37:00,37.5,37.5,29.75,West,263,4.1,4.6,100,0.00,OVC,,0.00,62.0,WeatherDisplay:10.37,2013-02-27 12:37:00,
2013-02-27 07:41:00,37.5,37.5,29.75,West,263,2.1,3.5,100,0.00,OVC,,0.00,90.0,WeatherDisplay:10.37,2013-02-27 12:41:00,
2013-02-27 07:42:00,37.5,37.5,29.75,West,263,2.3,3.5,100,0.00,OVC,,0.00,95.0,WeatherDisplay:10.37,2013-02-27 12:42:00,
2013-02-27 07:43:00,37.5,37.5,29.75,West,263,2.5,3.5,100,0.00,OVC,,0.00,53.0,WeatherDisplay:10.37,2013-02-27 12:43:00,
2013-02-27 07:45:00,37.5,37.5,29.75,West,263,1.8,2.3,100,0.00,OVC,,0.00,74.0,WeatherDisplay:10.37,2013-02-27 12:45:00,
2013-02-27 07:48:00,37.6,37.6,29.77,West,263,0.0,2.3,100,0.00,OVC,,0.00,120.0,WeatherDisplay:10.37,2013-02-27 12:48:00,
2013-02-27 07:49:00,37.6,37.6,29.77,West,263,0.0,2.3,100,0.00,OVC,,0.00,121.0,WeatherDisplay:10.37,2013-02-27 12:49:00,
2013-02-27 07:51:00,37.6,37.6,29.77,West,263,0.0,0.0,100,0.00,OVC,,0.00,98.0,WeatherDisplay:10.37,2013-02-27 12:51:00,
2013-02-27 07:52:00,37.6,37.6,29.77,West,263,0.0,0.0,100,0.00,OVC,,0.00,127.0,WeatherDisplay:10.37,2013-02-27 12:52:00,
2013-02-27 07:54:00,37.8,37.8,29.77,West,263,1.6,3.5,100,0.00,OVC,,0.00,148.0,WeatherDisplay:10.37,2013-02-27 12:54:00,
2013-02-27 07:55:00,37.8,37.8,29.77,West,263,3.2,4.0,100,0.00,OVC,,0.00,146.0,WeatherDisplay:10.37,2013-02-27 12:55:00,
2013-02-27 07:57:00,37.8,37.8,29.77,West,263,3.8,5.0,100,0.00,OVC,,0.00,149.0,WeatherDisplay:10.37,2013-02-27 12:57:00,
2013-02-27 08:00:00,37.8,37.8,29.77,West,263,3.3,4.0,100,0.00,OVC,,0.00,158.0,WeatherDisplay:10.37,2013-02-27 13:00:00,
2013-02-27 08:03:00,37.9,37.9,29.77,West,263,2.4,4.6,100,0.00,OVC,,0.00,181.0,WeatherDisplay:10.37,2013-02-27 13:03:00,
2013-02-27 08:04:00,37.9,37.9,29.77,West,263,2.9,4.0,100,0.00,OVC,,0.00,178.0,WeatherDisplay:10.37,2013-02-27 13:04:00,
2013-02-27 08:05:00,37.9,37.9,29.77,West,263,5.1,5.1,100,0.00,OVC,,0.00,181.0,WeatherDisplay:10.37,2013-02-27 13:05:00,
2013-02-27 08:06:00,37.9,37.9,29.77,West,263,4.3,5.8,100,0.00,OVC,,0.00,141.0,WeatherDisplay:10.37,2013-02-27 13:06:00,
2013-02-27 08:09:00,38.0,38.0,29.78,West,263,5.6,6.0,100,0.00,OVC,,0.00,206.0,WeatherDisplay:10.37,2013-02-27 13:09:00,
2013-02-27 08:10:00,38.0,38.0,29.78,West,263,5.4,6.9,100,0.00,OVC,,0.00,213.0,WeatherDisplay:10.37,2013-02-27 13:10:00,
2013-02-27 08:11:00,38.0,38.0,29.78,West,263,5.0,5.8,100,0.00,OVC,,0.00,206.0,WeatherDisplay:10.37,2013-02-27 13:11:00,
2013-02-27 08:12:00,38.2,38.2,29.78,West,263,4.9,5.8,100,0.00,OVC,,0.00,209.0,WeatherDisplay:10.37,2013-02-27 13:12:00,
2013-02-27 08:15:00,38.2,38.2,29.78,WSW,258,7.0,10.0,100,0.00,OVC,OVC,0.00,220.0,WeatherDisplay:10.37,2013-02-27 13:15:00,
2013-02-27 08:17:00,38.3,38.3,29.78,SW,236,7.5,10.4,100,0.01,RA,OVC,0.01,229.0,WeatherDisplay:10.37,2013-02-27 13:17:00,
2013-02-27 08:20:00,38.3,38.3,29.79,WSW,242,7.7,11.5,100,0.01,RA,OVC,0.01,230.0,WeatherDisplay:10.37,2013-02-27 13:20:00,
2013-02-27 08:22:00,38.3,38.3,29.79,WSW,242,4.7,6.0,100,0.01,RA,OVC,0.01,241.0,WeatherDisplay:10.37,2013-02-27 13:22:00,
2013-02-27 08:23:00,38.5,38.5,29.79,WSW,242,4.6,6.9,100,0.01,RA,OVC,0.01,239.0,WeatherDisplay:10.37,2013-02-27 13:23:00,
2013-02-27 08:24:00,38.5,38.5,29.79,WSW,242,4.8,5.8,100,0.01,RA,OVC,0.01,248.0,WeatherDisplay:10.37,2013-02-27 13:24:00,
2013-02-27 08:27:00,38.8,38.8,29.79,WSW,242,3.3,8.1,100,0.01,OVC,,0.01,250.0,WeatherDisplay:10.37,2013-02-27 13:27:00,
2013-02-27 08:28:00,38.8,38.8,29.79,WSW,242,2.4,3.5,100,0.01,OVC,,0.01,250.0,WeatherDisplay:10.37,2013-02-27 13:28:00,
2013-02-27 08:29:00,38.8,38.8,29.79,WSW,242,1.8,3.5,100,0.01,OVC,,0.01,262.0,WeatherDisplay:10.37,2013-02-27 13:29:00,
2013-02-27 08:34:00,38.9,38.9,29.79,WSW,242,4.9,6.9,100,0.01,OVC,,0.01,278.0,WeatherDisplay:10.37,2013-02-27 13:34:00,
2013-02-27 08:35:00,38.9,38.9,29.79,WSW,242,4.2,4.6,100,0.01,OVC,,0.01,281.0,WeatherDisplay:10.37,2013-02-27 13:35:00,
2013-02-27 08:36:00,38.9,38.9,29.80,WSW,242,5.2,5.8,100,0.01,OVC,,0.01,285.0,WeatherDisplay:10.37,2013-02-27 13:36:00,
2013-02-27 08:39:00,38.9,38.9,29.80,WSW,242,3.2,3.5,100,0.01,OVC,,0.01,294.0,WeatherDisplay:10.37,2013-02-27 13:39:00,
2013-02-27 08:41:00,39.1,39.1,29.80,WSW,242,3.6,5.0,100,0.01,OVC,,0.01,299.0,WeatherDisplay:10.37,2013-02-27 13:41:00,
2013-02-27 08:42:00,39.2,39.2,29.80,WSW,242,4.4,5.8,100,0.01,OVC,,0.01,306.0,WeatherDisplay:10.37,2013-02-27 13:42:00,
2013-02-27 08:43:00,39.2,39.2,29.80,WSW,242,4.2,5.8,100,0.01,OVC,,0.01,308.0,WeatherDisplay:10.37,2013-02-27 13:43:00,
2013-02-27 08:46:00,39.3,39.3,29.80,WSW,242,2.1,3.5,100,0.01,OVC,,0.01,320.0,WeatherDisplay:10.37,2013-02-27 13:46:00,
2013-02-27 08:48:00,39.5,39.5,29.80,WSW,242,5.1,6.0,100,0.01,OVC,,0.01,323.0,WeatherDisplay:10.37,2013-02-27 13:48:00,
2013-02-27 08:49:00,39.5,39.5,29.80,WSW,242,4.4,5.8,100,0.01,OVC,,0.01,329.0,WeatherDisplay:10.37,2013-02-27 13:49:00,
2013-02-27 08:50:00,39.5,39.5,29.80,WSW,242,4.6,5.8,100,0.01,OVC,,0.01,329.0,WeatherDisplay:10.37,2013-02-27 13:50:00,
2013-02-27 08:51:00,39.6,39.6,29.80,WSW,242,3.8,4.6,100,0.01,OVC,,0.01,332.0,WeatherDisplay:10.37,2013-02-27 13:51:00,
2013-02-27 08:53:00,40.1,40.1,29.80,WSW,242,3.6,6.9,100,0.01,OVC,,0.01,341.0,WeatherDisplay:10.37,2013-02-27 13:53:00,
2013-02-27 08:56:00,40.1,40.1,29.80,WSW,242,5.1,6.9,100,0.01,OVC,,0.01,346.0,WeatherDisplay:10.37,2013-02-27 13:56:00,
2013-02-27 08:57:00,40.2,40.2,29.80,WSW,242,2.7,5.8,100,0.01,OVC,,0.01,352.0,WeatherDisplay:10.37,2013-02-27 13:57:00,
2013-02-27 08:58:00,40.2,40.2,29.80,WSW,242,2.2,5.8,100,0.01,OVC,,0.01,355.0,WeatherDisplay:10.37,2013-02-27 13:58:00,
2013-02-27 09:01:00,40.3,40.3,29.80,WSW,242,6.5,9.2,100,0.01,OVC,,0.01,366.0,WeatherDisplay:10.37,2013-02-27 14:01:00,
2013-02-27 09:02:00,40.3,40.0,29.80,WSW,242,6.4,9.2,99,0.01,OVC,,0.01,369.0,WeatherDisplay:10.37,2013-02-27 14:02:00,
2013-02-27 09:04:00,40.3,40.0,29.80,WSW,242,4.9,6.9,99,0.01,OVC,,0.01,371.0,WeatherDisplay:10.37,2013-02-27 14:04:00,
2013-02-27 09:05:00,40.5,40.2,29.80,WSW,242,4.2,6.9,99,0.01,OVC,,0.01,373.0,WeatherDisplay:10.37,2013-02-27 14:05:00,
2013-02-27 09:07:00,40.5,40.0,29.80,WSW,242,2.9,4.0,98,0.01,OVC,,0.01,381.0,WeatherDisplay:10.37,2013-02-27 14:07:00,
2013-02-27 09:09:00,40.6,40.1,29.80,WSW,242,4.6,6.0,98,0.01,OVC,,0.01,385.0,WeatherDisplay:10.37,2013-02-27 14:09:00,
2013-02-27 09:10:00,40.8,40.0,29.80,WSW,242,5.0,7.0,97,0.01,OVC,,0.01,385.0,WeatherDisplay:10.37,2013-02-27 14:10:00,
2013-02-27 09:13:00,40.9,39.6,29.80,WSW,242,4.4,5.8,95,0.01,OVC,,0.01,397.0,WeatherDisplay:10.37,2013-02-27 14:13:00,
2013-02-27 09:14:00,41.1,39.8,29.80,WSW,242,4.4,5.8,95,0.01,OVC,,0.01,401.0,WeatherDisplay:10.37,2013-02-27 14:14:00,
2013-02-27 09:15:00,41.2,39.9,29.80,WSW,242,4.8,4.8,95,0.01,OVC,,0.01,404.0,WeatherDisplay:10.37,2013-02-27 14:15:00,
2013-02-27 09:19:00,41.6,39.4,29.80,WSW,242,5.2,5.8,92,0.00,OVC,,0.01,418.0,WeatherDisplay:10.37,2013-02-27 14:19:00,
2013-02-27 09:20:00,41.6,39.4,29.80,WSW,242,5.1,5.8,92,0.00,OVC,,0.01,422.0,WeatherDisplay:10.37,2013-02-27 14:20:00,
2013-02-27 09:23:00,42.1,39.4,29.80,WSW,242,4.0,5.0,90,0.00,OVC,,0.01,429.0,WeatherDisplay:10.37,2013-02-27 14:23:00,
2013-02-27 09:24:00,42.3,39.3,29.80,WSW,242,3.6,4.6,89,0.00,OVC,,0.01,434.0,WeatherDisplay:10.37,2013-02-27 14:24:00,
2013-02-27 09:27:00,42.5,38.9,29.80,WSW,242,5.5,6.9,87,0.00,OVC,,0.01,441.0,WeatherDisplay:10.37,2013-02-27 14:27:00,
2013-02-27 09:28:00,42.5,38.9,29.80,WSW,242,2.4,4.6,87,0.00,OVC,,0.01,446.0,WeatherDisplay:10.37,2013-02-27 14:28:00,
2013-02-27 09:31:00,42.8,38.3,29.80,WSW,241,4.8,8.1,84,0.00,OVC,,0.01,455.0,WeatherDisplay:10.37,2013-02-27 14:31:00,
2013-02-27 09:33:00,42.9,38.4,29.80,WSW,243,5.7,9.2,84,0.00,OVC,,0.01,459.0,WeatherDisplay:10.37,2013-02-27 14:33:00,
2013-02-27 09:35:00,42.9,37.8,29.80,WSW,243,3.7,9.2,82,0.00,OVC,,0.01,464.0,WeatherDisplay:10.37,2013-02-27 14:35:00,
2013-02-27 09:36:00,43.1,38.0,29.80,SW,236,7.4,11.5,82,0.00,OVC,,0.01,466.0,WeatherDisplay:10.37,2013-02-27 14:36:00,
2013-02-27 09:38:00,43.3,37.9,29.80,SW,233,7.1,9.2,81,0.00,OVC,,0.01,473.0,WeatherDisplay:10.37,2013-02-27 14:38:00,
2013-02-27 09:40:00,43.5,38.1,29.80,SW,236,6.5,11.5,81,0.00,OVC,,0.01,478.0,WeatherDisplay:10.37,2013-02-27 14:40:00,
2013-02-27 09:41:00,43.5,37.7,29.80,SW,236,3.8,5.8,80,0.00,OVC,,0.01,482.0,WeatherDisplay:10.37,2013-02-27 14:41:00,
2013-02-27 09:43:00,43.8,38.0,29.80,SW,236,2.8,5.8,80,0.00,OVC,,0.01,483.0,WeatherDisplay:10.37,2013-02-27 14:43:00,
2013-02-27 09:45:00,44.2,38.4,29.80,SW,236,0.8,3.5,80,0.00,OVC,,0.01,490.0,WeatherDisplay:10.37,2013-02-27 14:45:00,
2013-02-27 09:46:00,44.2,38.4,29.80,SW,236,1.7,6.0,80,0.00,OVC,,0.01,490.0,WeatherDisplay:10.37,2013-02-27 14:46:00,
2013-02-27 09:47:00,44.2,37.4,29.80,SW,234,8.4,9.0,77,0.00,OVC,,0.01,496.0,WeatherDisplay:10.37,2013-02-27 14:47:00,
2013-02-27 09:49:00,44.3,36.9,29.80,WSW,240,5.2,8.1,75,0.00,OVC,,0.01,501.0,WeatherDisplay:10.37,2013-02-27 14:49:00,
2013-02-27 09:52:00,44.6,36.5,29.81,WSW,254,5.1,10.4,73,0.00,OVC,,0.01,508.0,WeatherDisplay:10.37,2013-02-27 14:52:00,
2013-02-27 09:53:00,44.8,36.7,29.81,WSW,256,5.1,8.1,73,0.00,OVC,,0.01,512.0,WeatherDisplay:10.37,2013-02-27 14:53:00,
2013-02-27 09:54:00,45.1,37.6,29.81,WSW,253,5.1,9.0,75,0.00,OVC,,0.01,515.0,WeatherDisplay:10.37,2013-02-27 14:54:00,
2013-02-27 09:57:00,45.2,36.7,29.81,WSW,244,11.0,13.8,72,0.00,OVC,,0.01,522.0,WeatherDisplay:10.37,2013-02-27 14:57:00,
2013-02-27 09:58:00,45.1,35.5,29.81,WSW,247,10.3,13.8,69,0.00,OVC,,0.01,524.0,WeatherDisplay:10.37,2013-02-27 14:58:00,
2013-02-27 10:00:00,45.1,35.9,29.81,West,262,6.6,12.0,70,0.00,OVC,,0.01,527.0,WeatherDisplay:10.37,2013-02-27 15:00:00,
2013-02-27 10:02:00,45.2,35.3,29.81,West,272,8.5,12.7,68,0.00,OVC,,0.01,533.0,WeatherDisplay:10.37,2013-02-27 15:02:00,
2013-02-27 10:04:00,45.2,35.6,29.81,West,272,3.8,12.7,69,0.00,OVC,,0.01,540.0,WeatherDisplay:10.37,2013-02-27 15:04:00,
2013-02-27 10:05:00,45.4,35.8,29.81,West,272,2.8,12.7,69,0.00,OVC,,0.01,540.0,WeatherDisplay:10.37,2013-02-27 15:05:00,
2013-02-27 10:08:00,45.8,35.1,29.81,WSW,251,9.3,13.0,66,0.00,OVC,,0.01,550.0,WeatherDisplay:10.37,2013-02-27 15:08:00,
2013-02-27 10:11:00,45.7,34.6,29.81,West,259,9.8,11.5,65,0.00,OVC,,0.01,555.0,WeatherDisplay:10.37,2013-02-27 15:11:00,
2013-02-27 10:13:00,45.7,34.2,29.81,West,265,8.8,11.5,64,0.00,OVC,,0.01,561.0,WeatherDisplay:10.37,2013-02-27 15:13:00,
2013-02-27 10:14:00,45.8,34.3,29.81,West,267,7.8,10.4,64,0.00,OVC,,0.01,563.0,WeatherDisplay:10.37,2013-02-27 15:14:00,
2013-02-27 10:16:00,46.0,34.5,29.81,West,269,8.5,11.5,64,0.00,OVC,,0.01,566.0,WeatherDisplay:10.37,2013-02-27 15:16:00,
2013-02-27 10:18:00,45.8,34.3,29.81,West,269,5.8,9.2,64,0.00,OVC,,0.01,573.0,WeatherDisplay:10.37,2013-02-27 15:18:00,
2013-02-27 10:20:00,46.0,35.3,29.81,WSW,255,7.9,9.2,66,0.00,OVC,,0.01,577.0,WeatherDisplay:10.37,2013-02-27 15:20:00,
2013-02-27 10:21:00,46.0,34.1,29.81,WSW,254,5.0,10.4,63,0.00,OVC,,0.01,580.0,WeatherDisplay:10.37,2013-02-27 15:21:00,
2013-02-27 10:25:00,46.1,34.2,29.81,West,267,10.6,12.7,63,0.00,OVC,,0.01,587.0,WeatherDisplay:10.37,2013-02-27 15:25:00,
2013-02-27 10:26:00,46.1,34.2,29.81,West,269,9.7,13.8,63,0.00,OVC,,0.01,589.0,WeatherDisplay:10.37,2013-02-27 15:26:00,
2013-02-27 10:27:00,46.1,33.8,29.81,West,272,9.2,11.5,62,0.00,OVC,,0.01,591.0,WeatherDisplay:10.37,2013-02-27 15:27:00,
2013-02-27 10:29:00,46.1,33.8,29.81,WSW,257,8.5,11.5,62,0.00,OVC,,0.01,596.0,WeatherDisplay:10.37,2013-02-27 15:29:00,
2013-02-27 10:30:00,46.2,34.3,29.81,WSW,243,9.8,12.7,63,0.00,OVC,,0.01,598.0,WeatherDisplay:10.37,2013-02-27 15:30:00,
2013-02-27 10:31:00,46.2,33.9,29.81,WSW,250,11.3,12.7,62,0.00,OVC,,0.01,598.0,WeatherDisplay:10.37,2013-02-27 15:31:00,
2013-02-27 10:33:00,46.2,33.5,29.81,WSW,244,10.6,12.7,61,0.00,OVC,,0.01,605.0,WeatherDisplay:10.37,2013-02-27 15:33:00,
2013-02-27 10:34:00,46.2,33.5,29.81,WSW,244,5.7,10.4,61,0.00,OVC,,0.01,606.0,WeatherDisplay:10.37,2013-02-27 15:34:00,
2013-02-27 10:37:00,46.5,33.8,29.81,WSW,254,9.1,11.5,61,0.00,OVC,,0.01,612.0,WeatherDisplay:10.37,2013-02-27 15:37:00,
2013-02-27 10:39:00,46.7,34.0,29.81,WSW,243,9.5,11.5,61,0.00,OVC,,0.01,615.0,WeatherDisplay:10.37,2013-02-27 15:39:00,
2013-02-27 10:40:00,47.0,34.6,29.81,West,278,5.3,8.0,62,0.00,OVC,,0.01,617.0,WeatherDisplay:10.37,2013-02-27 15:40:00,
2013-02-27 10:42:00,47.0,35.8,29.81,West,276,10.8,15.0,65,0.00,OVC,,0.01,622.0,WeatherDisplay:10.37,2013-02-27 15:42:00,
2013-02-27 10:43:00,47.0,32.5,29.81,WNW,284,8.7,12.7,57,0.00,OVC,,0.01,626.0,WeatherDisplay:10.37,2013-02-27 15:43:00,
2013-02-27 10:45:00,47.0,33.0,29.81,WNW,286,3.6,9.2,58,0.00,OVC,,0.01,626.0,WeatherDisplay:10.37,2013-02-27 15:45:00,
2013-02-27 10:47:00,47.1,34.7,29.81,WNW,296,7.7,11.5,62,0.00,OVC,,0.01,629.0,WeatherDisplay:10.37,2013-02-27 15:47:00,
2013-02-27 10:51:00,47.1,33.1,29.81,WNW,284,2.8,6.9,58,0.00,OVC,,0.01,640.0,WeatherDisplay:10.37,2013-02-27 15:51:00,
2013-02-27 10:52:00,47.4,34.2,29.81,WSW,254,5.0,8.1,60,0.00,OVC,,0.01,649.0,WeatherDisplay:10.37,2013-02-27 15:52:00,
2013-02-27 10:53:00,47.6,34.0,29.81,WSW,243,6.1,9.2,59,0.00,OVC,,0.01,652.0,WeatherDisplay:10.37,2013-02-27 15:53:00,
2013-02-27 10:56:00,47.7,32.8,29.81,SW,224,6.2,13.0,56,0.00,OVC,,0.01,654.0,WeatherDisplay:10.37,2013-02-27 15:56:00,
2013-02-27 10:59:00,47.7,33.2,29.81,WSW,242,12.0,14.0,57,0.00,OVC,,0.01,666.0,WeatherDisplay:10.37,2013-02-27 15:59:00,
2013-02-27 11:00:00,47.7,32.8,29.81,SW,230,11.9,15.0,56,0.00,OVC,,0.01,661.0,WeatherDisplay:10.37,2013-02-27 16:00:00,
2013-02-27 11:01:00,47.7,31.9,29.81,WSW,240,7.5,15.0,54,0.00,OVC,,0.01,659.0,WeatherDisplay:10.37,2013-02-27 16:01:00,
2013-02-27 11:04:00,47.6,30.8,29.81,SW,235,8.9,11.5,52,0.00,OVC,,0.01,661.0,WeatherDisplay:10.37,2013-02-27 16:04:00,
2013-02-27 11:06:00,47.7,32.3,29.81,SW,233,4.1,11.5,55,0.00,OVC,,0.01,666.0,WeatherDisplay:10.37,2013-02-27 16:06:00,
2013-02-27 11:07:00,47.9,33.8,29.81,West,269,4.8,10.4,58,0.00,OVC,,0.01,679.0,WeatherDisplay:10.37,2013-02-27 16:07:00,
2013-02-27 11:09:00,48.0,33.0,29.81,West,272,6.7,9.2,56,0.00,OVC,,0.01,677.0,WeatherDisplay:10.37,2013-02-27 16:09:00,
2013-02-27 11:10:00,48.0,33.5,29.81,West,276,6.5,9.2,57,0.00,OVC,,0.01,675.0,WeatherDisplay:10.37,2013-02-27 16:10:00,
2013-02-27 11:14:00,48.3,33.8,29.81,WSW,258,10.6,13.8,57,0.00,OVC,,0.01,680.0,WeatherDisplay:10.37,2013-02-27 16:14:00,
2013-02-27 11:15:00,48.2,33.7,29.81,WSW,250,10.1,13.8,57,0.00,OVC,,0.01,679.0,WeatherDisplay:10.37,2013-02-27 16:15:00,
2013-02-27 11:16:00,48.2,32.3,29.81,WSW,252,9.2,12.7,54,0.00,OVC,,0.01,677.0,WeatherDisplay:10.37,2013-02-27 16:16:00,
2013-02-27 11:20:00,48.2,32.3,29.81,WSW,252,7.9,11.5,54,0.00,OVC,,0.01,684.0,WeatherDisplay:10.37,2013-02-27 16:20:00,
2013-02-27 11:21:00,48.2,32.3,29.81,WSW,254,4.7,10.4,54,0.00,OVC,,0.01,686.0,WeatherDisplay:10.37,2013-02-27 16:21:00,
2013-02-27 11:23:00,48.3,34.6,29.81,WSW,240,8.3,13.8,59,0.00,OVC,,0.01,691.0,WeatherDisplay:10.37,2013-02-27 16:23:00,
2013-02-27 11:25:00,48.3,33.3,29.81,WSW,252,10.0,11.5,56,0.00,OVC,,0.01,694.0,WeatherDisplay:10.37,2013-02-27 16:25:00,
2013-02-27 11:26:00,48.3,33.3,29.81,WSW,252,10.0,13.0,56,0.00,OVC,,0.01,694.0,WeatherDisplay:10.37,2013-02-27 16:26:00,
2013-02-27 11:29:00,48.2,33.7,29.81,WSW,244,11.2,12.7,57,0.00,OVC,,0.01,696.0,WeatherDisplay:10.37,2013-02-27 16:29:00,
2013-02-27 11:30:00,48.2,33.2,29.81,WSW,244,12.0,17.0,56,0.00,OVC,OVC,0.01,698.0,WeatherDisplay:10.37,2013-02-27 16:30:00,
2013-02-27 11:32:00,48.2,32.3,29.81,SW,227,8.4,13.8,54,0.00,OVC,,0.01,700.0,WeatherDisplay:10.37,2013-02-27 16:32:00,
2013-02-27 11:36:00,48.5,33.9,29.81,WSW,248,14.0,18.4,57,0.00,OVC,,0.01,703.0,WeatherDisplay:10.37,2013-02-27 16:36:00,
2013-02-27 11:37:00,48.5,32.6,29.81,SW,229,13.0,18.4,54,0.00,OVC,,0.01,703.0,WeatherDisplay:10.37,2013-02-27 16:37:00,
2013-02-27 11:39:00,48.6,32.7,29.81,SW,217,12.4,15.0,54,0.00,OVC,,0.01,708.0,WeatherDisplay:10.37,2013-02-27 16:39:00,
2013-02-27 11:42:00,48.9,33.0,29.81,WSW,251,11.4,12.7,54,0.00,OVC,,0.01,707.0,WeatherDisplay:10.37,2013-02-27 16:42:00,
2013-02-27 11:43:00,48.9,32.5,29.81,WSW,257,10.4,12.7,53,0.00,OVC,,0.01,710.0,WeatherDisplay:10.37,2013-02-27 16:43:00,
2013-02-27 11:44:00,49.2,32.8,29.81,WSW,249,9.9,13.8,53,0.00,OVC,,0.01,712.0,WeatherDisplay:10.37,2013-02-27 16:44:00,
2013-02-27 11:45:00,49.3,33.8,29.81,WSW,244,10.0,18.0,55,0.00,OVC,OVC,0.01,715.0,WeatherDisplay:10.37,2013-02-27 16:45:00,
2013-02-27 11:47:00,49.2,33.3,29.81,WSW,238,11.6,16.1,54,0.00,OVC,,0.01,717.0,WeatherDisplay:10.37,2013-02-27 16:47:00,
2013-02-27 11:48:00,49.4,33.9,29.81,WSW,246,12.4,16.1,55,0.00,OVC,,0.01,712.0,WeatherDisplay:10.37,2013-02-27 16:48:00,
2013-02-27 11:49:00,49.2,35.0,29.81,WSW,246,12.2,16.1,58,0.00,OVC,,0.01,710.0,WeatherDisplay:10.37,2013-02-27 16:49:00,
2013-02-27 11:51:00,49.1,31.7,29.81,WSW,254,9.9,16.1,51,0.00,OVC,,0.01,712.0,WeatherDisplay:10.37,2013-02-27 16:51:00,
2013-02-27 11:54:00,49.2,32.8,29.81,West,273,7.5,11.5,53,0.00,OVC,,0.01,719.0,WeatherDisplay:10.37,2013-02-27 16:54:00,
2013-02-27 11:55:00,49.2,32.8,29.81,WNW,285,6.7,11.5,53,0.00,OVC,,0.01,719.0,WeatherDisplay:10.37,2013-02-27 16:55:00,
2013-02-27 11:58:00,49.1,32.2,29.81,West,275,11.4,13.8,52,0.00,CLR,OVC,0.01,714.0,WeatherDisplay:10.37,2013-02-27 16:58:00,
2013-02-27 12:00:00,48.9,32.0,29.81,WNW,295,2.7,3.5,52,0.00,CLR,OVC,0.01,719.0,WeatherDisplay:10.37,2013-02-27 17:00:00,
2013-02-27 12:01:00,48.9,31.5,29.81,WNW,295,2.0,3.5,51,0.00,CLR,OVC,0.01,717.0,WeatherDisplay:10.37,2013-02-27 17:01:00,
2013-02-27 12:03:00,49.1,33.2,29.81,WSW,254,6.3,12.0,54,0.00,CLR,OVC,0.01,712.0,WeatherDisplay:10.37,2013-02-27 17:03:00,
2013-02-27 12:05:00,49.4,33.9,29.81,West,263,6.5,10.4,55,0.00,CLR,OVC,0.01,721.0,WeatherDisplay:10.37,2013-02-27 17:05:00,
2013-02-27 12:08:00,49.5,34.0,29.80,WNW,288,5.8,11.5,55,0.00,CLR,OVC,0.01,724.0,WeatherDisplay:10.37,2013-02-27 17:08:00,
2013-02-27 12:09:00,49.6,34.1,29.80,SW,216,5.7,7.0,55,0.00,CLR,OVC,0.01,724.0,WeatherDisplay:10.37,2013-02-27 17:09:00,
2013-02-27 12:11:00,49.9,34.4,29.80,SW,229,13.6,16.1,55,0.00,CLR,OVC,0.01,724.0,WeatherDisplay:10.37,2013-02-27 17:11:00,
2013-02-27 12:14:00,49.8,34.3,29.80,SW,228,6.7,10.4,55,0.00,CLR,OVC,0.01,726.0,WeatherDisplay:10.37,2013-02-27 17:14:00,
2013-02-27 12:15:00,49.8,33.8,29.80,WSW,238,7.0,16.0,54,0.00,CLR,OVC,0.01,728.0,WeatherDisplay:10.37,2013-02-27 17:15:00,
2013-02-27 12:16:00,49.9,35.3,29.80,SW,234,11.1,15.0,57,0.00,CLR,OVC,0.01,728.0,WeatherDisplay:10.37,2013-02-27 17:16:00,
2013-02-27 12:19:00,49.8,32.9,29.80,WSW,238,10.2,12.7,52,0.00,CLR,OVC,0.01,731.0,WeatherDisplay:10.37,2013-02-27 17:19:00,
2013-02-27 12:21:00,49.8,33.8,29.80,West,260,9.0,11.5,54,0.00,CLR,OVC,0.01,726.0,WeatherDisplay:10.37,2013-02-27 17:21:00,
2013-02-27 12:24:00,49.9,34.4,29.80,SW,231,11.2,15.0,55,0.00,CLR,OVC,0.01,726.0,WeatherDisplay:10.37,2013-02-27 17:24:00,
2013-02-27 12:26:00,49.8,33.3,29.80,SW,232,3.3,12.7,53,0.00,CLR,OVC,0.01,156.0,WeatherDisplay:10.37,2013-02-27 17:26:00,
2013-02-27 12:29:00,49.9,33.0,29.80,West,263,7.8,12.0,52,0.00,CLR,OVC,0.01,731.0,WeatherDisplay:10.37,2013-02-27 17:29:00,
2013-02-27 12:30:00,50.1,34.5,29.80,West,269,9.8,13.0,55,0.00,CLR,OVC,0.01,731.0,WeatherDisplay:10.37,2013-02-27 17:30:00,
2013-02-27 12:31:00,50.2,34.2,29.80,West,262,10.9,13.8,54,0.00,CLR,OVC,0.01,735.0,WeatherDisplay:10.37,2013-02-27 17:31:00,
2013-02-27 12:32:00,50.4,34.4,29.80,WSW,252,10.2,12.7,54,0.00,CLR,OVC,0.01,735.0,WeatherDisplay:10.37,2013-02-27 17:32:00,
2013-02-27 12:35:00,50.5,34.5,29.79,West,270,10.3,16.1,54,0.00,CLR,OVC,0.01,737.0,WeatherDisplay:10.37,2013-02-27 17:35:00,
2013-02-27 12:36:00,50.5,34.0,29.79,SW,234,12.3,16.1,53,0.00,CLR,OVC,0.01,738.0,WeatherDisplay:10.37,2013-02-27 17:36:00,
2013-02-27 12:37:00,50.5,33.5,29.79,WSW,243,9.2,16.1,52,0.00,CLR,OVC,0.01,738.0,WeatherDisplay:10.37,2013-02-27 17:37:00,
2013-02-27 12:41:00,50.4,33.4,29.79,West,281,4.2,11.5,52,0.00,CLR,OVC,0.01,721.0,WeatherDisplay:10.37,2013-02-27 17:41:00,
2013-02-27 12:42:00,50.5,35.4,29.79,SW,234,6.4,12.0,56,0.00,CLR,OVC,0.01,179.0,WeatherDisplay:10.37,2013-02-27 17:42:00,
2013-02-27 12:44:00,50.4,34.4,29.79,SW,230,6.0,11.5,54,0.00,CLR,OVC,0.01,165.0,WeatherDisplay:10.37,2013-02-27 17:44:00,
2013-02-27 12:48:00,50.7,35.1,29.79,SW,218,13.8,14.0,55,0.00,CLR,OVC,0.01,744.0,WeatherDisplay:10.37,2013-02-27 17:48:00,
2013-02-27 12:49:00,50.7,34.6,29.79,SW,217,14.0,17.3,54,0.00,CLR,OVC,0.01,744.0,WeatherDisplay:10.37,2013-02-27 17:49:00,
2013-02-27 12:52:00,51.0,34.0,29.79,SW,226,14.1,15.0,52,0.00,CLR,OVC,0.01,756.0,WeatherDisplay:10.37,2013-02-27 17:52:00,
2013-02-27 12:54:00,50.8,34.3,29.79,SSW,213,1.5,9.2,53,0.00,CLR,OVC,0.01,765.0,WeatherDisplay:10.37,2013-02-27 17:54:00,
2013-02-27 12:57:00,51.1,35.0,29.79,South,183,10.4,17.0,54,0.00,CLR,OVC,0.01,777.0,WeatherDisplay:10.37,2013-02-27 17:57:00,
2013-02-27 12:58:00,51.3,34.7,29.79,SSW,210,16.3,17.3,53,0.00,CLR,OVC,0.01,777.0,WeatherDisplay:10.37,2013-02-27 17:58:00,
2013-02-27 13:01:00,51.1,34.5,29.79,WSW,254,5.7,13.8,53,0.00,CLR,OVC,0.01,761.0,WeatherDisplay:10.37,2013-02-27 18:01:00,
2013-02-27 13:03:00,51.3,36.1,29.79,WSW,241,12.4,17.3,56,0.00,CLR,OVC,0.01,761.0,WeatherDisplay:10.37,2013-02-27 18:03:00,
2013-02-27 13:04:00,51.4,35.8,29.78,WSW,243,15.7,20.0,55,0.00,CLR,OVC,0.01,761.0,WeatherDisplay:10.37,2013-02-27 18:04:00,
2013-02-27 13:06:00,51.4,36.7,29.78,WSW,240,12.9,15.0,57,0.00,CLR,OVC,0.01,773.0,WeatherDisplay:10.37,2013-02-27 18:06:00,
2013-02-27 13:09:00,51.0,34.0,29.78,SW,236,13.5,17.3,52,0.00,CLR,OVC,0.01,763.0,WeatherDisplay:10.37,2013-02-27 18:09:00,
2013-02-27 13:10:00,50.8,33.8,29.78,WSW,245,12.0,17.3,52,0.00,CLR,OVC,0.01,763.0,WeatherDisplay:10.37,2013-02-27 18:10:00,
2013-02-27 13:12:00,50.7,33.2,29.78,SW,234,10.4,11.5,51,0.00,CLR,OVC,0.01,747.0,WeatherDisplay:10.37,2013-02-27 18:12:00,
2013-02-27 13:15:00,51.0,35.8,29.78,SW,235,12.7,17.3,56,0.00,CLR,OVC,0.01,775.0,WeatherDisplay:10.37,2013-02-27 18:15:00,
2013-02-27 13:16:00,51.0,35.8,29.78,SSW,212,14.0,17.3,56,0.00,CLR,OVC,0.01,775.0,WeatherDisplay:10.37,2013-02-27 18:16:00,
2013-02-27 13:17:00,51.0,35.8,29.78,SW,222,12.7,17.3,56,0.00,CLR,OVC,0.01,130.0,WeatherDisplay:10.37,2013-02-27 18:17:00,
2013-02-27 13:21:00,50.5,34.5,29.78,WSW,254,8.2,10.4,54,0.00,SCT,OVC,0.01,146.0,WeatherDisplay:10.37,2013-02-27 18:21:00,
2013-02-27 13:22:00,50.5,34.5,29.78,West,260,7.3,11.5,54,0.00,SCT,OVC,0.01,146.0,WeatherDisplay:10.37,2013-02-27 18:22:00,
2013-02-27 13:23:00,50.5,34.0,29.78,WSW,243,13.4,18.4,53,0.00,SCT,OVC,0.01,146.0,WeatherDisplay:10.37,2013-02-27 18:23:00,
2013-02-27 13:25:00,50.8,36.1,29.78,West,259,12.7,17.3,57,0.00,CLR,OVC,0.01,780.0,WeatherDisplay:10.37,2013-02-27 18:25:00,
2013-02-27 13:27:00,51.1,35.5,29.78,SW,227,8.8,13.0,55,0.00,CLR,OVC,0.01,770.0,WeatherDisplay:10.37,2013-02-27 18:27:00,
2013-02-27 13:28:00,51.1,35.9,29.78,SW,214,13.9,16.1,56,0.00,CLR,OVC,0.01,770.0,WeatherDisplay:10.37,2013-02-27 18:28:00,
2013-02-27 13:31:00,51.4,35.3,29.78,SW,216,14.0,17.3,54,0.00,CLR,OVC,0.01,775.0,WeatherDisplay:10.37,2013-02-27 18:31:00,
2013-02-27 13:33:00,51.4,35.3,29.78,SW,234,13.1,16.1,54,0.00,CLR,OVC,0.01,775.0,WeatherDisplay:10.37,2013-02-27 18:33:00,
2013-02-27 13:34:00,51.4,34.8,29.78,SW,216,12.5,16.1,53,0.00,CLR,OVC,0.01,775.0,WeatherDisplay:10.37,2013-02-27 18:34:00,
2013-02-27 13:38:00,51.9,35.8,29.77,SW,232,9.8,13.8,54,0.00,CLR,OVC,0.01,738.0,WeatherDisplay:10.37,2013-02-27 18:38:00,
2013-02-27 13:39:00,51.9,35.3,29.77,SW,220,9.7,13.0,53,0.00,CLR,OVC,0.01,738.0,WeatherDisplay:10.37,2013-02-27 18:39:00,
2013-02-27 13:40:00,52.0,36.8,29.77,WSW,240,11.5,15.0,56,0.00,CLR,OVC,0.01,738.0,WeatherDisplay:10.37,2013-02-27 18:40:00,
2013-02-27 13:44:00,52.0,35.9,29.77,SW,224,13.4,16.1,54,0.00,CLR,OVC,0.01,737.0,WeatherDisplay:10.37,2013-02-27 18:44:00,
2013-02-27 13:45:00,52.3,36.6,29.77,WSW,242,12.5,20.0,55,0.00,CLR,OVC,0.01,737.0,WeatherDisplay:10.37,2013-02-27 18:45:00,
2013-02-27 13:48:00,52.0,35.4,29.77,SW,236,15.2,21.9,53,0.00,CLR,OVC,0.01,773.0,WeatherDisplay:10.37,2013-02-27 18:48:00,
2013-02-27 13:49:00,51.7,34.6,29.77,WSW,248,11.2,16.1,52,0.00,SCT,OVC,0.01,204.0,WeatherDisplay:10.37,2013-02-27 18:49:00,
2013-02-27 13:53:00,51.6,35.5,29.77,West,269,10.4,13.8,54,0.00,CLR,OVC,0.01,610.0,WeatherDisplay:10.37,2013-02-27 18:53:00,
2013-02-27 13:54:00,51.4,34.3,29.76,WSW,240,13.1,15.0,52,0.00,CLR,OVC,0.01,814.0,WeatherDisplay:10.37,2013-02-27 18:54:00,
2013-02-27 13:56:00,51.6,36.9,29.77,SW,226,9.4,11.5,57,0.00,CLR,OVC,0.01,823.0,WeatherDisplay:10.37,2013-02-27 18:56:00,
2013-02-27 13:59:00,51.7,35.6,29.77,SW,226,14.2,16.1,54,0.00,CLR,OVC,0.01,823.0,WeatherDisplay:10.37,2013-02-27 18:59:00,
2013-02-27 14:01:00,52.0,37.2,29.77,SW,227,13.0,16.1,57,0.00,CLR,OVC,0.01,828.0,WeatherDisplay:10.37,2013-02-27 19:01:00,
2013-02-27 14:02:00,52.0,37.2,29.77,SSW,213,11.6,16.1,57,0.00,CLR,OVC,0.01,828.0,WeatherDisplay:10.37,2013-02-27 19:02:00,
2013-02-27 14:03:00,52.3,36.6,29.77,SSW,198,12.6,15.0,55,0.00,CLR,OVC,0.01,828.0,WeatherDisplay:10.37,2013-02-27 19:03:00,
2013-02-27 14:06:00,52.2,36.5,29.77,SW,231,9.7,12.7,55,0.00,SCT,OVC,0.01,237.0,WeatherDisplay:10.37,2013-02-27 19:06:00,
2013-02-27 14:07:00,52.3,36.6,29.76,West,269,10.3,11.5,55,0.00,SCT,OVC,0.01,237.0,WeatherDisplay:10.37,2013-02-27 19:07:00,
2013-02-27 14:11:00,52.5,36.8,29.76,WSW,247,7.8,7.8,55,0.00,CLR,OVC,0.01,738.0,WeatherDisplay:10.37,2013-02-27 19:11:00,
2013-02-27 14:12:00,52.6,37.3,29.76,WSW,248,11.8,15.0,56,0.00,CLR,OVC,0.01,738.0,WeatherDisplay:10.37,2013-02-27 19:12:00,
2013-02-27 14:16:00,52.8,36.6,29.76,WSW,237,7.2,11.5,54,0.00,CLR,OVC,0.01,696.0,WeatherDisplay:10.37,2013-02-27 19:16:00,
2013-02-27 14:17:00,52.8,36.6,29.76,SW,227,8.3,11.5,54,0.00,CLR,OVC,0.01,700.0,WeatherDisplay:10.37,2013-02-27 19:17:00,
2013-02-27 14:18:00,52.9,37.6,29.76,SSW,192,11.8,23.0,56,0.00,CLR,OVC,0.01,715.0,WeatherDisplay:10.37,2013-02-27 19:18:00,
2013-02-27 14:20:00,52.9,35.7,29.76,SW,214,15.6,20.7,52,0.00,CLR,OVC,0.01,784.0,WeatherDisplay:10.37,2013-02-27 19:20:00,
2013-02-27 14:23:00,52.5,36.3,29.76,SW,225,14.5,19.6,54,0.00,CLR,OVC,0.01,784.0,WeatherDisplay:10.37,2013-02-27 19:23:00,
2013-02-27 14:24:00,52.3,36.1,29.76,SW,227,17.3,19.6,54,0.00,CLR,OVC,0.01,784.0,WeatherDisplay:10.37,2013-02-27 19:24:00,
2013-02-27 14:26:00,51.9,35.3,29.76,WSW,244,12.5,18.4,53,0.00,BKN,OVC,0.01,272.0,WeatherDisplay:10.37,2013-02-27 19:26:00,
2013-02-27 14:29:00,51.7,35.6,29.76,SSW,212,10.6,17.3,54,0.00,BKN,OVC,0.01,197.0,WeatherDisplay:10.37,2013-02-27 19:29:00,
2013-02-27 14:30:00,51.7,35.6,29.76,SSW,196,11.3,17.3,54,0.00,BKN,OVC,0.01,176.0,WeatherDisplay:10.37,2013-02-27 19:30:00,
2013-02-27 14:32:00,51.6,35.5,29.76,SSW,196,4.6,9.2,54,0.00,BKN,OVC,0.01,195.0,WeatherDisplay:10.37,2013-02-27 19:32:00,
2013-02-27 14:35:00,51.7,35.6,29.76,SSW,202,8.0,12.0,54,0.00,CLR,OVC,0.01,773.0,WeatherDisplay:10.37,2013-02-27 19:35:00,
2013-02-27 14:36:00,51.9,35.8,29.76,SSW,198,8.7,11.5,54,0.00,CLR,OVC,0.01,788.0,WeatherDisplay:10.37,2013-02-27 19:36:00,
2013-02-27 14:38:00,52.2,36.0,29.76,SSW,213,2.7,6.9,54,0.00,CLR,OVC,0.01,220.0,WeatherDisplay:10.37,2013-02-27 19:38:00,
2013-02-27 14:40:00,52.3,36.1,29.76,SSW,213,3.4,5.0,54,0.00,BKN,OVC,0.01,717.0,WeatherDisplay:10.37,2013-02-27 19:40:00,
2013-02-27 14:41:00,52.5,35.8,29.76,SW,219,13.7,15.0,53,0.00,CLR,OVC,0.01,710.0,WeatherDisplay:10.37,2013-02-27 19:41:00,
2013-02-27 14:43:00,52.8,35.6,29.76,WSW,255,11.7,13.8,52,0.00,CLR,OVC,0.01,700.0,WeatherDisplay:10.37,2013-02-27 19:43:00,
2013-02-27 14:45:00,52.9,35.7,29.76,West,266,12.1,13.8,52,0.00,CLR,OVC,0.01,675.0,WeatherDisplay:10.37,2013-02-27 19:45:00,
2013-02-27 14:47:00,53.1,37.3,29.76,SSW,202,11.3,16.0,55,0.00,CLR,OVC,0.01,652.0,WeatherDisplay:10.37,2013-02-27 19:47:00,
2013-02-27 14:48:00,53.2,36.0,29.76,SSW,193,15.9,19.6,52,0.00,CLR,OVC,0.01,629.0,WeatherDisplay:10.37,2013-02-27 19:48:00,
2013-02-27 14:51:00,53.2,37.0,29.75,WSW,247,11.3,15.0,54,0.00,CLR,OVC,0.01,612.0,WeatherDisplay:10.37,2013-02-27 19:51:00,
2013-02-27 14:52:00,53.2,37.0,29.75,West,261,12.1,13.8,54,0.00,CLR,OVC,0.01,601.0,WeatherDisplay:10.37,2013-02-27 19:52:00,
2013-02-27 14:54:00,53.2,36.5,29.75,SSW,202,13.5,21.0,53,0.00,CLR,OVC,0.01,592.0,WeatherDisplay:10.37,2013-02-27 19:54:00,
2013-02-27 14:57:00,53.3,35.6,29.75,SW,216,11.1,19.6,51,0.00,CLR,OVC,0.01,594.0,WeatherDisplay:10.37,2013-02-27 19:57:00,
2013-02-27 14:58:00,53.3,36.1,29.75,SW,236,12.3,16.1,52,0.00,CLR,OVC,0.01,594.0,WeatherDisplay:10.37,2013-02-27 19:58:00,
2013-02-27 14:59:00,53.3,36.6,29.75,WSW,238,13.6,17.3,53,0.00,CLR,OVC,0.01,592.0,WeatherDisplay:10.37,2013-02-27 19:59:00,
2013-02-27 15:03:00,53.5,36.8,29.75,South,182,12.4,19.6,53,0.00,CLR,OVC,0.01,592.0,WeatherDisplay:10.37,2013-02-27 20:03:00,
2013-02-27 15:04:00,53.5,35.3,29.75,SSE,167,15.2,23.0,50,0.00,CLR,OVC,0.01,591.0,WeatherDisplay:10.37,2013-02-27 20:04:00,
2013-02-27 15:05:00,53.6,35.4,29.75,SW,215,16.1,23.0,50,0.00,CLR,OVC,0.01,584.0,WeatherDisplay:10.37,2013-02-27 20:05:00,
2013-02-27 15:08:00,53.8,36.1,29.75,West,259,7.6,12.7,51,0.00,CLR,OVC,0.01,564.0,WeatherDisplay:10.37,2013-02-27 20:08:00,
2013-02-27 15:09:00,53.9,37.6,29.75,SW,218,13.0,17.0,54,0.00,CLR,OVC,0.01,563.0,WeatherDisplay:10.37,2013-02-27 20:09:00,
2013-02-27 15:10:00,54.1,37.3,29.75,WSW,244,14.9,15.0,53,0.00,CLR,OVC,0.01,559.0,WeatherDisplay:10.37,2013-02-27 20:10:00,
2013-02-27 15:14:00,54.1,35.9,29.75,WSW,242,11.9,13.8,50,0.00,CLR,OVC,0.01,548.0,WeatherDisplay:10.37,2013-02-27 20:14:00,
2013-02-27 15:15:00,54.1,36.4,29.75,SW,234,13.0,23.0,51,0.00,CLR,OVC,0.01,545.0,WeatherDisplay:10.37,2013-02-27 20:15:00,
2013-02-27 15:16:00,54.1,35.9,29.75,SW,225,16.8,19.6,50,0.00,CLR,OVC,0.01,550.0,WeatherDisplay:10.37,2013-02-27 20:16:00,
2013-02-27 15:17:00,54.1,35.9,29.75,SW,224,16.9,19.6,50,0.00,CLR,OVC,0.01,548.0,WeatherDisplay:10.37,2013-02-27 20:17:00,
2013-02-27 15:20:00,54.2,36.9,29.75,WSW,246,14.9,19.6,52,0.00,CLR,OVC,0.01,554.0,WeatherDisplay:10.37,2013-02-27 20:20:00,
2013-02-27 15:21:00,54.1,35.3,29.75,SW,223,19.1,21.9,49,0.00,CLR,OVC,0.01,533.0,WeatherDisplay:10.37,2013-02-27 20:21:00,
2013-02-27 15:23:00,53.9,36.7,29.75,SW,233,13.5,16.1,52,0.00,CLR,OVC,0.01,531.0,WeatherDisplay:10.37,2013-02-27 20:23:00,
2013-02-27 15:25:00,54.2,38.4,29.75,SW,234,11.7,15.0,55,0.00,CLR,OVC,0.01,543.0,WeatherDisplay:10.37,2013-02-27 20:25:00,
2013-02-27 15:26:00,54.4,37.1,29.75,SW,236,12.9,16.1,52,0.00,CLR,OVC,0.01,543.0,WeatherDisplay:10.37,2013-02-27 20:26:00,
2013-02-27 15:27:00,54.2,36.9,29.75,SW,236,14.0,17.3,52,0.00,CLR,OVC,0.01,543.0,WeatherDisplay:10.37,2013-02-27 20:27:00,
2013-02-27 15:28:00,54.2,35.9,29.75,SW,236,13.7,19.6,50,0.00,CLR,OVC,0.01,541.0,WeatherDisplay:10.37,2013-02-27 20:28:00,
2013-02-27 15:31:00,54.2,36.5,29.75,SW,214,12.1,16.1,51,0.00,CLR,OVC,0.01,552.0,WeatherDisplay:10.37,2013-02-27 20:31:00,
2013-02-27 15:32:00,54.2,35.9,29.75,SW,233,11.6,13.8,50,0.00,CLR,OVC,0.01,540.0,WeatherDisplay:10.37,2013-02-27 20:32:00,
2013-02-27 15:33:00,54.2,35.9,29.75,SW,215,11.4,13.0,50,0.00,CLR,OVC,0.01,524.0,WeatherDisplay:10.37,2013-02-27 20:33:00,
2013-02-27 15:34:00,54.2,36.9,29.75,SW,225,12.2,15.0,52,0.00,FEW,OVC,0.01,512.0,WeatherDisplay:10.37,2013-02-27 20:34:00,
2013-02-27 15:37:00,54.1,35.9,29.75,SSW,197,8.4,18.4,50,0.00,FEW,OVC,0.01,497.0,WeatherDisplay:10.37,2013-02-27 20:37:00,
2013-02-27 15:39:00,54.4,36.6,29.75,South,185,11.0,16.1,51,0.00,FEW,OVC,0.01,487.0,WeatherDisplay:10.37,2013-02-27 20:39:00,
2013-02-27 15:40:00,54.4,36.1,29.75,SSW,213,13.4,18.4,50,0.00,FEW,OVC,0.01,485.0,WeatherDisplay:10.37,2013-02-27 20:40:00,
2013-02-27 15:44:00,54.8,36.5,29.75,WSW,241,16.2,19.6,50,0.00,FEW,OVC,0.01,468.0,WeatherDisplay:10.37,2013-02-27 20:44:00,
2013-02-27 15:45:00,54.7,36.4,29.75,SW,224,15.0,20.0,50,0.00,SCT,OVC,0.01,408.0,WeatherDisplay:10.37,2013-02-27 20:45:00,
2013-02-27 15:46:00,54.4,35.6,29.75,WSW,240,13.8,17.3,49,0.00,FEW,OVC,0.01,476.0,WeatherDisplay:10.37,2013-02-27 20:46:00,
2013-02-27 15:47:00,54.1,36.9,29.75,WSW,251,13.5,16.1,52,0.00,FEW,OVC,0.01,79.0,WeatherDisplay:10.37,2013-02-27 20:47:00,
2013-02-27 15:49:00,53.8,35.6,29.75,SW,224,12.8,16.0,50,0.00,SCT,OVC,0.01,466.0,WeatherDisplay:10.37,2013-02-27 20:49:00,
2013-02-27 15:52:00,53.9,37.1,29.75,SW,227,9.1,12.7,53,0.00,SCT,OVC,0.01,462.0,WeatherDisplay:10.37,2013-02-27 20:52:00,
2013-02-27 15:53:00,53.9,35.7,29.75,SW,230,11.1,12.0,50,0.00,SCT,OVC,0.01,367.0,WeatherDisplay:10.37,2013-02-27 20:53:00,
2013-02-27 15:55:00,54.1,36.4,29.75,WSW,242,7.9,11.5,51,0.00,SCT,OVC,0.01,457.0,WeatherDisplay:10.37,2013-02-27 20:55:00,
2013-02-27 15:56:00,54.1,35.9,29.75,SSW,203,8.2,11.0,50,0.00,SCT,OVC,0.01,93.0,WeatherDisplay:10.37,2013-02-27 20:56:00,
2013-02-27 15:57:00,54.1,35.9,29.75,SSW,200,8.3,8.3,50,0.00,SCT,OVC,0.01,107.0,WeatherDisplay:10.37,2013-02-27 20:57:00,
2013-02-27 15:59:00,53.9,36.2,29.75,SSW,201,11.2,13.8,51,0.00,BKN,OVC,0.01,111.0,WeatherDisplay:10.37,2013-02-27 20:59:00,
2013-02-27 16:00:00,53.9,36.2,29.75,SSW,202,8.7,13.8,51,0.00,BKN,OVC,0.01,111.0,WeatherDisplay:10.37,2013-02-27 21:00:00,
2013-02-27 16:01:00,53.8,36.6,29.75,SSW,200,8.7,11.5,52,0.00,BKN,OVC,0.01,248.0,WeatherDisplay:10.37,2013-02-27 21:01:00,
2013-02-27 16:04:00,53.8,36.1,29.75,SW,231,8.4,10.4,51,0.00,BKN,OVC,0.01,234.0,WeatherDisplay:10.37,2013-02-27 21:04:00,
2013-02-27 16:06:00,54.1,37.3,29.75,SW,225,8.0,10.4,53,0.00,BKN,OVC,0.01,135.0,WeatherDisplay:10.37,2013-02-27 21:06:00,
2013-02-27 16:07:00,54.2,35.9,29.75,SSW,205,7.6,10.4,50,0.00,BKN,OVC,0.01,167.0,WeatherDisplay:10.37,2013-02-27 21:07:00,
2013-02-27 16:11:00,54.5,36.2,29.75,SSW,213,4.0,5.8,50,0.00,SCT,OVC,0.01,397.0,WeatherDisplay:10.37,2013-02-27 21:11:00,
2013-02-27 16:12:00,54.7,36.4,29.75,SSW,211,5.2,12.0,50,0.00,SCT,OVC,0.01,424.0,WeatherDisplay:10.37,2013-02-27 21:12:00,
2013-02-27 16:14:00,54.8,36.0,29.75,West,263,10.8,13.0,49,0.00,SCT,OVC,0.01,410.0,WeatherDisplay:10.37,2013-02-27 21:14:00,
2013-02-27 16:17:00,54.8,36.5,29.75,WSW,238,13.7,15.0,50,0.00,BKN,OVC,0.01,167.0,WeatherDisplay:10.37,2013-02-27 21:17:00,
2013-02-27 16:18:00,54.7,36.4,29.75,WSW,250,14.0,15.0,50,0.00,BKN,OVC,0.01,167.0,WeatherDisplay:10.37,2013-02-27 21:18:00,
2013-02-27 16:22:00,54.7,35.4,29.74,WSW,252,11.7,13.8,48,0.00,BKN,OVC,0.01,343.0,WeatherDisplay:10.37,2013-02-27 21:22:00,
2013-02-27 16:23:00,54.7,35.9,29.74,WSW,258,10.7,13.8,49,0.00,BKN,OVC,0.01,339.0,WeatherDisplay:10.37,2013-02-27 21:23:00,
2013-02-27 16:26:00,54.8,36.5,29.74,SW,222,8.3,11.5,50,0.00,BKN,OVC,0.01,128.0,WeatherDisplay:10.37,2013-02-27 21:26:00,
2013-02-27 16:28:00,55.0,36.7,29.74,SW,235,9.8,13.0,50,0.00,BKN,OVC,0.01,128.0,WeatherDisplay:10.37,2013-02-27 21:28:00,
2013-02-27 16:31:00,55.0,37.7,29.74,SSW,213,9.3,13.8,52,0.00,BKN,OVC,0.01,322.0,WeatherDisplay:10.37,2013-02-27 21:31:00,
2013-02-27 16:32:00,55.0,37.7,29.74,WSW,249,9.8,12.7,52,0.00,BKN,OVC,0.01,323.0,WeatherDisplay:10.37,2013-02-27 21:32:00,
2013-02-27 16:33:00,55.0,37.7,29.74,West,265,8.7,11.5,52,0.00,BKN,OVC,0.01,323.0,WeatherDisplay:10.37,2013-02-27 21:33:00,
2013-02-27 16:34:00,55.0,36.2,29.74,SW,236,10.4,12.7,49,0.00,BKN,OVC,0.01,329.0,WeatherDisplay:10.37,2013-02-27 21:34:00,
2013-02-27 16:37:00,55.0,36.2,29.74,SW,228,6.4,11.5,49,0.00,BKN,OVC,0.01,339.0,WeatherDisplay:10.37,2013-02-27 21:37:00,
2013-02-27 16:39:00,55.1,36.3,29.74,SW,225,7.5,11.5,49,0.00,BKN,OVC,0.01,343.0,WeatherDisplay:10.37,2013-02-27 21:39:00,
2013-02-27 16:40:00,55.3,37.5,29.74,SSW,213,11.0,17.0,51,0.00,BKN,OVC,0.01,318.0,WeatherDisplay:10.37,2013-02-27 21:40:00,
2013-02-27 16:41:00,55.3,35.4,29.74,SW,235,14.4,17.0,47,0.00,BKN,OVC,0.01,306.0,WeatherDisplay:10.37,2013-02-27 21:41:00,
2013-02-27 16:42:00,55.1,35.7,29.74,SW,220,13.5,16.1,48,0.00,BKN,OVC,0.01,306.0,WeatherDisplay:10.37,2013-02-27 21:42:00,
2013-02-27 16:44:00,54.8,35.5,29.74,SW,218,16.3,19.6,48,0.00,BKN,OVC,0.01,278.0,WeatherDisplay:10.37,2013-02-27 21:44:00,
2013-02-27 16:45:00,54.8,35.5,29.74,SSW,203,17.2,19.6,48,0.00,BKN,OVC,0.01,232.0,WeatherDisplay:10.37,2013-02-27 21:45:00,
2013-02-27 16:47:00,54.5,35.2,29.74,SSW,195,15.6,20.7,48,0.00,BKN,OVC,0.01,97.0,WeatherDisplay:10.37,2013-02-27 21:47:00,
2013-02-27 16:49:00,54.5,35.2,29.74,SSW,199,13.0,17.3,48,0.00,BKN,OVC,0.01,69.0,WeatherDisplay:10.37,2013-02-27 21:49:00,
2013-02-27 16:52:00,54.7,36.9,29.73,SSW,205,12.4,19.6,51,0.00,BKN,OVC,0.01,172.0,WeatherDisplay:10.37,2013-02-27 21:52:00,
2013-02-27 16:53:00,54.7,37.4,29.73,SW,219,14.5,17.0,52,0.00,BKN,OVC,0.01,209.0,WeatherDisplay:10.37,2013-02-27 21:53:00,
2013-02-27 16:54:00,54.7,35.9,29.73,SW,223,14.3,17.3,49,0.00,BKN,OVC,0.01,223.0,WeatherDisplay:10.37,2013-02-27 21:54:00,
2013-02-27 16:55:00,54.7,36.4,29.73,SW,217,10.4,15.0,50,0.00,BKN,OVC,0.01,225.0,WeatherDisplay:10.37,2013-02-27 21:55:00,
2013-02-27 16:58:00,54.8,36.5,29.73,SW,232,11.1,12.0,50,0.00,BKN,OVC,0.01,104.0,WeatherDisplay:10.37,2013-02-27 21:58:00,
2013-02-27 16:59:00,54.7,35.9,29.73,SSW,213,12.8,15.0,49,0.00,BKN,OVC,0.01,149.0,WeatherDisplay:10.37,2013-02-27 21:59:00,
2013-02-27 17:00:00,54.7,36.4,29.73,SW,224,9.3,13.8,50,0.00,BKN,OVC,0.01,127.0,WeatherDisplay:10.37,2013-02-27 22:00:00,
2013-02-27 17:02:00,54.7,36.9,29.73,South,186,14.3,16.1,51,0.00,BKN,OVC,0.01,190.0,WeatherDisplay:10.37,2013-02-27 22:02:00,
2013-02-27 17:04:00,54.7,36.4,29.73,SSW,205,13.3,19.6,50,0.00,BKN,OVC,0.01,116.0,WeatherDisplay:10.37,2013-02-27 22:04:00,
2013-02-27 17:05:00,54.7,35.9,29.73,SSW,198,12.6,19.6,49,0.00,BKN,OVC,0.01,116.0,WeatherDisplay:10.37,2013-02-27 22:05:00,
2013-02-27 17:08:00,54.7,35.4,29.73,South,190,14.1,19.6,48,0.00,BKN,OVC,0.01,163.0,WeatherDisplay:10.37,2013-02-27 22:08:00,
2013-02-27 17:09:00,54.7,36.4,29.73,SW,215,14.2,16.0,50,0.00,BKN,OVC,0.01,174.0,WeatherDisplay:10.37,2013-02-27 22:09:00,
2013-02-27 17:10:00,54.7,35.4,29.73,SSW,196,15.2,16.0,48,0.00,BKN,OVC,0.01,174.0,WeatherDisplay:10.37,2013-02-27 22:10:00,
2013-02-27 17:11:00,54.5,35.7,29.73,SSW,209,16.5,19.6,49,0.00,BKN,OVC,0.01,186.0,WeatherDisplay:10.37,2013-02-27 22:11:00,
2013-02-27 17:13:00,54.5,36.2,29.73,SW,219,13.2,17.0,50,0.00,BKN,OVC,0.01,179.0,WeatherDisplay:10.37,2013-02-27 22:13:00,
2013-02-27 17:15:00,54.5,36.2,29.73,SSW,201,15.1,18.4,50,0.00,BKN,OVC,0.01,100.0,WeatherDisplay:10.37,2013-02-27 22:15:00,
2013-02-27 17:16:00,54.5,35.2,29.73,SSW,209,17.9,19.6,48,0.00,BKN,OVC,0.01,148.0,WeatherDisplay:10.37,2013-02-27 22:16:00,
2013-02-27 17:17:00,54.5,35.7,29.73,SSW,212,17.1,25.3,49,0.00,BKN,OVC,0.01,149.0,WeatherDisplay:10.37,2013-02-27 22:17:00,
2013-02-27 17:18:00,54.5,35.7,29.73,SW,220,15.7,19.6,49,0.00,BKN,OVC,0.01,148.0,WeatherDisplay:10.37,2013-02-27 22:18:00,
2013-02-27 17:20:00,54.4,35.6,29.73,SW,223,15.0,25.0,49,0.00,BKN,OVC,0.01,142.0,WeatherDisplay:10.37,2013-02-27 22:20:00,
2013-02-27 17:22:00,54.2,35.4,29.73,SW,218,14.0,17.3,49,0.00,BKN,OVC,0.01,135.0,WeatherDisplay:10.37,2013-02-27 22:22:00,
2013-02-27 17:23:00,54.2,35.4,29.73,SSW,203,13.9,17.3,49,0.00,BKN,OVC,0.01,132.0,WeatherDisplay:10.37,2013-02-27 22:23:00,
2013-02-27 17:24:00,54.2,35.4,29.73,South,187,14.6,17.3,49,0.00,BKN,OVC,0.01,62.0,WeatherDisplay:10.37,2013-02-27 22:24:00,
2013-02-27 17:25:00,54.2,35.4,29.73,SSW,198,14.5,18.4,49,0.00,BKN,OVC,0.01,62.0,WeatherDisplay:10.37,2013-02-27 22:25:00,
2013-02-27 17:28:00,54.2,34.9,29.73,SW,225,14.6,19.6,48,0.00,BKN,OVC,0.01,114.0,WeatherDisplay:10.37,2013-02-27 22:28:00,
2013-02-27 17:29:00,54.2,35.4,29.73,SW,223,13.0,15.0,49,0.00,BKN,OVC,0.01,111.0,WeatherDisplay:10.37,2013-02-27 22:29:00,
2013-02-27 17:31:00,54.2,35.4,29.73,SSW,204,13.3,16.1,49,0.00,BKN,OVC,0.01,53.0,WeatherDisplay:10.37,2013-02-27 22:31:00,
2013-02-27 17:33:00,54.1,35.9,29.73,SSW,206,13.7,17.3,50,0.00,BKN,OVC,0.01,95.0,WeatherDisplay:10.37,2013-02-27 22:33:00,
2013-02-27 17:36:00,54.1,35.3,29.73,SSW,211,13.0,17.3,49,0.00,BKN,OVC,0.01,83.0,WeatherDisplay:10.37,2013-02-27 22:36:00,
2013-02-27 17:37:00,54.1,35.3,29.73,SSW,213,11.7,17.3,49,0.00,BKN,OVC,0.01,58.0,WeatherDisplay:10.37,2013-02-27 22:37:00,
2013-02-27 17:38:00,54.1,35.3,29.73,SW,232,12.4,18.4,49,0.00,BKN,OVC,0.01,60.0,WeatherDisplay:10.37,2013-02-27 22:38:00,
2013-02-27 17:42:00,54.1,35.9,29.73,SSW,213,10.8,12.7,50,0.00,BKN,OVC,0.01,67.0,WeatherDisplay:10.37,2013-02-27 22:42:00,
2013-02-27 17:43:00,53.9,36.2,29.73,SSW,207,10.2,12.7,51,0.00,BKN,OVC,0.01,65.0,WeatherDisplay:10.37,2013-02-27 22:43:00,
2013-02-27 17:48:00,53.9,35.7,29.73,SW,233,10.5,15.0,50,0.00,OVC,,0.01,32.0,WeatherDisplay:10.37,2013-02-27 22:48:00,
2013-02-27 17:49:00,53.9,35.7,29.74,SSW,211,10.1,15.0,50,0.00,OVC,,0.01,28.0,WeatherDisplay:10.37,2013-02-27 22:49:00,
2013-02-27 17:53:00,53.6,35.9,29.74,SW,223,12.8,12.8,51,0.00,OVC,,0.01,18.0,WeatherDisplay:10.37,2013-02-27 22:53:00,
2013-02-27 17:54:00,53.6,35.9,29.74,SW,214,12.5,19.6,51,0.00,OVC,,0.01,18.0,WeatherDisplay:10.37,2013-02-27 22:54:00,
2013-02-27 17:56:00,53.5,35.8,29.74,SSW,213,12.2,16.1,51,0.00,OVC,,0.01,16.0,WeatherDisplay:10.37,2013-02-27 22:56:00,
2013-02-27 17:59:00,53.3,36.1,29.74,SSW,203,10.5,12.7,52,0.00,OVC,,0.01,14.0,WeatherDisplay:10.37,2013-02-27 22:59:00,
2013-02-27 18:00:00,53.3,35.6,29.74,SSW,192,11.7,13.0,51,0.00,OVC,,0.01,14.0,WeatherDisplay:10.37,2013-02-27 23:00:00,
2013-02-27 18:02:00,53.2,35.5,29.73,SW,215,13.2,17.3,51,0.00,OVC,,0.01,12.0,WeatherDisplay:10.37,2013-02-27 23:02:00,
2013-02-27 18:04:00,53.2,36.5,29.73,SSW,206,10.9,13.8,53,0.00,OVC,,0.01,11.0,WeatherDisplay:10.37,2013-02-27 23:04:00,
2013-02-27 18:05:00,53.1,35.9,29.73,SSW,210,13.5,17.3,52,0.00,OVC,,0.01,11.0,WeatherDisplay:10.37,2013-02-27 23:05:00,
2013-02-27 18:07:00,53.1,35.4,29.73,SSW,207,12.2,15.0,51,0.00,OVC,,0.01,9.0,WeatherDisplay:10.37,2013-02-27 23:07:00,
2013-02-27 18:09:00,52.9,35.7,29.73,SSW,201,12.5,13.8,52,0.00,OVC,,0.01,7.0,WeatherDisplay:10.37,2013-02-27 23:09:00,
2013-02-27 18:11:00,52.9,35.7,29.73,SSW,206,10.5,13.8,52,0.00,OVC,,0.01,5.0,WeatherDisplay:10.37,2013-02-27 23:11:00,
2013-02-27 18:12:00,52.8,35.6,29.73,SSW,211,10.1,11.5,52,0.00,OVC,,0.01,5.0,WeatherDisplay:10.37,2013-02-27 23:12:00,
2013-02-27 18:15:00,52.8,36.1,29.73,SSW,207,10.0,17.0,53,0.00,OVC,OVC,0.01,0.0,WeatherDisplay:10.37,2013-02-27 23:15:00,
2013-02-27 18:16:00,52.6,35.5,29.73,SSW,212,11.6,12.7,52,0.00,OVC,,0.01,0.0,WeatherDisplay:10.37,2013-02-27 23:16:00,
2013-02-27 18:17:00,52.6,35.9,29.73,SSW,207,8.8,13.0,53,0.00,OVC,,0.01,0.0,WeatherDisplay:10.37,2013-02-27 23:17:00,
2013-02-27 18:20:00,52.5,36.3,29.73,SW,219,9.9,12.7,54,0.00,OVC,,0.01,0.0,WeatherDisplay:10.37,2013-02-27 23:20:00,
2013-02-27 18:21:00,52.5,35.8,29.73,SSW,209,9.7,11.5,53,0.00,OVC,,0.01,0.0,WeatherDisplay:10.37,2013-02-27 23:21:00,
2013-02-27 18:22:00,52.3,35.7,29.73,SSW,200,10.0,12.0,53,0.00,OVC,,0.01,0.0,WeatherDisplay:10.37,2013-02-27 23:22:00,
2013-02-27 18:23:00,52.3,35.7,29.73,SSW,206,9.5,12.7,53,0.00,OVC,,0.01,0.0,WeatherDisplay:10.37,2013-02-27 23:23:00,
2013-02-27 18:27:00,52.2,36.0,29.74,SSW,207,7.7,10.0,54,0.00,OVC,,0.01,0.0,WeatherDisplay:10.37,2013-02-27 23:27:00,
2013-02-27 18:28:00,52.0,35.9,29.74,SSW,210,6.2,10.4,54,0.00,OVC,,0.01,0.0,WeatherDisplay:10.37,2013-02-27 23:28:00,
2013-02-27 18:29:00,52.0,35.9,29.74,SSW,210,5.7,6.9,54,0.00,OVC,,0.01,0.0,WeatherDisplay:10.37,2013-02-27 23:29:00,
2013-02-27 18:32:00,51.9,35.8,29.74,SW,216,7.5,11.5,54,0.00,OVC,,0.01,0.0,WeatherDisplay:10.37,2013-02-27 23:32:00,
2013-02-27 18:34:00,51.9,35.8,29.75,SSW,209,6.1,9.2,54,0.00,OVC,,0.01,0.0,WeatherDisplay:10.37,2013-02-27 23:34:00,
2013-02-27 18:35:00,51.7,36.0,29.75,SSW,208,6.7,9.2,55,0.00,OVC,,0.01,0.0,WeatherDisplay:10.37,2013-02-27 23:35:00,
2013-02-27 18:37:00,51.6,35.9,29.75,SSW,199,7.9,10.0,55,0.00,OVC,,0.01,0.0,WeatherDisplay:10.37,2013-02-27 23:37:00,
2013-02-27 18:39:00,51.4,35.8,29.75,SSW,207,6.4,10.4,55,0.00,OVC,,0.01,0.0,WeatherDisplay:10.37,2013-02-27 23:39:00,
2013-02-27 18:40:00,51.4,35.8,29.75,SSW,209,5.4,6.9,55,0.00,OVC,,0.01,0.0,WeatherDisplay:10.37,2013-02-27 23:40:00,
2013-02-27 18:42:00,51.3,35.7,29.75,SSW,211,9.1,11.5,55,0.00,OVC,,0.01,0.0,WeatherDisplay:10.37,2013-02-27 23:42:00,
2013-02-27 18:44:00,51.3,35.7,29.75,SSW,210,6.0,9.2,55,0.00,,OVC,0.01,0.0,WeatherDisplay:10.37,2013-02-27 23:44:00,
2013-02-27 18:45:00,51.3,35.7,29.75,SSW,209,7.5,10.4,55,0.00,,OVC,0.01,0.0,WeatherDisplay:10.37,2013-02-27 23:45:00,
2013-02-27 18:46:00,51.3,35.7,29.75,SSW,209,6.9,11.5,55,0.00,,OVC,0.01,0.0,WeatherDisplay:10.37,2013-02-27 23:46:00,
2013-02-27 18:48:00,51.3,36.1,29.75,SSW,208,7.2,11.0,56,0.00,,OVC,0.01,0.0,WeatherDisplay:10.37,2013-02-27 23:48:00,
2013-02-27 18:50:00,51.0,35.8,29.75,SSW,206,6.6,11.0,56,0.00,,OVC,0.01,0.0,WeatherDisplay:10.37,2013-02-27 23:50:00,
2013-02-27 18:51:00,51.0,35.8,29.75,SSW,206,8.2,11.5,56,0.00,,OVC,0.01,0.0,WeatherDisplay:10.37,2013-02-27 23:51:00,
2013-02-27 18:52:00,51.0,35.8,29.75,SSW,206,6.7,11.5,56,0.00,,OVC,0.01,0.0,WeatherDisplay:10.37,2013-02-27 23:52:00,
2013-02-27 18:53:00,50.8,35.7,29.75,SSW,209,9.6,11.5,56,0.00,,OVC,0.01,0.0,WeatherDisplay:10.37,2013-02-27 23:53:00,
2013-02-27 18:55:00,51.0,35.8,29.75,SSW,211,8.3,12.7,56,0.00,,OVC,0.01,0.0,WeatherDisplay:10.37,2013-02-27 23:55:00,
2013-02-27 18:58:00,50.8,35.7,29.75,SSW,211,7.2,9.2,56,0.00,,OVC,0.01,0.0,WeatherDisplay:10.37,2013-02-27 23:58:00,
2013-02-27 18:59:00,50.8,35.7,29.75,SSW,210,6.2,10.4,56,0.00,,OVC,0.01,0.0,WeatherDisplay:10.37,2013-02-27 23:59:00,
2013-02-27 19:01:00,50.8,35.7,29.75,SSW,212,5.4,6.9,56,0.00,,OVC,0.01,0.0,WeatherDisplay:10.37,2013-02-28 00:01:00,
2013-02-27 19:03:00,50.7,35.6,29.75,SSW,211,5.8,6.9,56,0.00,,OVC,0.01,0.0,WeatherDisplay:10.37,2013-02-28 00:03:00,
2013-02-27 19:04:00,50.7,35.6,29.75,SSW,211,5.1,6.9,56,0.00,,OVC,0.01,0.0,WeatherDisplay:10.37,2013-02-28 00:04:00,
2013-02-27 19:09:00,50.7,36.0,29.75,SSW,211,5.1,8.0,57,0.00,,OVC,0.01,0.0,WeatherDisplay:10.37,2013-02-28 00:09:00,
2013-02-27 19:11:00,50.5,35.8,29.75,SSW,212,5.1,8.1,57,0.00,,OVC,0.01,0.0,WeatherDisplay:10.37,2013-02-28 00:11:00,
2013-02-27 19:15:00,50.5,35.8,29.75,SSW,211,7.0,10.0,57,0.00,,OVC,0.01,0.0,WeatherDisplay:10.37,2013-02-28 00:15:00,
2013-02-27 19:17:00,50.5,35.8,29.75,SSW,210,7.7,9.2,57,0.00,,OVC,0.01,0.0,WeatherDisplay:10.37,2013-02-28 00:17:00,
2013-02-27 19:20:00,50.4,36.2,29.75,SSW,208,6.3,7.0,58,0.00,,OVC,0.01,0.0,WeatherDisplay:10.37,2013-02-28 00:20:00,
2013-02-27 19:22:00,50.2,36.0,29.75,SSW,208,6.1,7.0,58,0.00,,OVC,0.01,0.0,WeatherDisplay:10.37,2013-02-28 00:22:00,
2013-02-27 19:25:00,50.1,35.9,29.75,SSW,208,5.4,7.0,58,0.00,,OVC,0.01,0.0,WeatherDisplay:10.37,2013-02-28 00:25:00,
2013-02-27 19:26:00,49.9,35.7,29.75,SSW,208,5.4,6.9,58,0.00,,OVC,0.01,0.0,WeatherDisplay:10.37,2013-02-28 00:26:00,
2013-02-27 19:29:00,49.8,36.0,29.75,SSW,208,5.2,5.8,59,0.00,,OVC,0.01,0.0,WeatherDisplay:10.37,2013-02-28 00:29:00,
2013-02-27 19:30:00,49.6,35.8,29.75,SSW,208,5.2,5.8,59,0.00,,OVC,0.01,0.0,WeatherDisplay:10.37,2013-02-28 00:30:00,
2013-02-27 19:31:00,49.5,35.8,29.75,SSW,208,4.8,5.8,59,0.00,,OVC,0.01,0.0,WeatherDisplay:10.37,2013-02-28 00:31:00,
2013-02-27 19:35:00,49.5,36.2,29.75,SSW,208,3.5,4.6,60,0.00,,OVC,0.01,0.0,WeatherDisplay:10.37,2013-02-28 00:35:00,
2013-02-27 19:36:00,49.5,35.8,29.75,SSW,208,3.6,3.6,59,0.00,,OVC,0.01,0.0,WeatherDisplay:10.37,2013-02-28 00:36:00,
2013-02-27 19:37:00,49.5,35.8,29.75,SSW,208,3.2,4.0,59,0.00,,OVC,0.01,0.0,WeatherDisplay:10.37,2013-02-28 00:37:00,
2013-02-27 19:41:00,49.5,35.8,29.75,SSW,208,2.2,3.5,59,0.00,,OVC,0.01,0.0,WeatherDisplay:10.37,2013-02-28 00:41:00,
2013-02-27 19:42:00,49.5,35.8,29.75,SSW,208,2.3,3.5,59,0.00,,OVC,0.01,0.0,WeatherDisplay:10.37,2013-02-28 00:42:00,
2013-02-27 19:44:00,49.4,35.7,29.75,SSW,208,1.1,3.5,59,0.00,,OVC,0.01,0.0,WeatherDisplay:10.37,2013-02-28 00:44:00,
2013-02-27 19:47:00,49.4,36.1,29.75,SSW,208,0.0,0.0,60,0.00,,OVC,0.01,0.0,WeatherDisplay:10.37,2013-02-28 00:47:00,
2013-02-27 19:48:00,49.2,35.9,29.75,SSW,208,1.3,3.5,60,0.00,,OVC,0.01,0.0,WeatherDisplay:10.37,2013-02-28 00:48:00,
2013-02-27 19:52:00,48.8,35.9,29.75,SSW,208,1.2,3.0,61,0.00,,OVC,0.01,0.0,WeatherDisplay:10.37,2013-02-28 00:52:00,
2013-02-27 19:53:00,48.8,35.9,29.75,SSW,208,1.9,3.5,61,0.00,,OVC,0.01,0.0,WeatherDisplay:10.37,2013-02-28 00:53:00,
2013-02-27 19:54:00,48.8,35.9,29.75,SSW,208,2.4,3.5,61,0.00,,OVC,0.01,0.0,WeatherDisplay:10.37,2013-02-28 00:54:00,
2013-02-27 19:58:00,48.5,36.1,29.75,SSW,208,1.3,3.5,62,0.00,,OVC,0.01,0.0,WeatherDisplay:10.37,2013-02-28 00:58:00,
2013-02-27 19:59:00,48.3,35.9,29.75,SSW,208,0.2,2.0,62,0.00,,OVC,0.01,0.0,WeatherDisplay:10.37,2013-02-28 00:59:00,
2013-02-27 20:00:00,48.2,35.8,29.75,SSW,208,0.4,2.3,62,0.00,,OVC,0.01,0.0,WeatherDisplay:10.37,2013-02-28 01:00:00,
2013-02-27 20:04:00,47.9,35.9,29.75,SSW,208,0.0,0.0,63,0.00,,OVC,0.01,0.0,WeatherDisplay:10.37,2013-02-28 01:04:00,
2013-02-27 20:05:00,47.9,35.9,29.75,SSW,208,0.1,1.2,63,0.00,,OVC,0.01,0.0,WeatherDisplay:10.37,2013-02-28 01:05:00,
2013-02-27 20:07:00,47.7,35.7,29.75,SSW,208,0.1,1.2,63,0.00,,OVC,0.01,0.0,WeatherDisplay:10.37,2013-02-28 01:07:00,
2013-02-27 20:09:00,47.6,36.0,29.74,SSW,208,0.1,2.3,64,0.00,,OVC,0.01,0.0,WeatherDisplay:10.37,2013-02-28 01:09:00,
2013-02-27 20:10:00,47.6,36.0,29.74,SSW,208,0.8,3.5,64,0.00,,OVC,0.01,0.0,WeatherDisplay:10.37,2013-02-28 01:10:00,
2013-02-27 20:11:00,47.6,36.0,29.74,SSW,208,0.4,3.5,64,0.00,,OVC,0.01,0.0,WeatherDisplay:10.37,2013-02-28 01:11:00,
2013-02-27 20:15:00,47.6,36.0,29.74,SSW,208,2.4,5.8,64,0.00,,OVC,0.01,0.0,WeatherDisplay:10.37,2013-02-28 01:15:00,
2013-02-27 20:16:00,47.6,36.0,29.74,SSW,208,2.3,3.5,64,0.00,,OVC,0.01,0.0,WeatherDisplay:10.37,2013-02-28 01:16:00,
2013-02-27 20:20:00,47.6,36.0,29.74,SSW,208,5.0,7.0,64,0.00,,OVC,0.01,0.0,WeatherDisplay:10.37,2013-02-28 01:20:00,
2013-02-27 20:21:00,47.4,35.8,29.74,SSW,208,4.2,4.6,64,0.00,,OVC,0.01,0.0,WeatherDisplay:10.37,2013-02-28 01:21:00,
2013-02-27 20:22:00,47.3,36.1,29.74,SSW,208,4.0,5.0,65,0.00,,OVC,0.01,0.0,WeatherDisplay:10.37,2013-02-28 01:22:00,
2013-02-27 20:23:00,47.3,36.1,29.74,SSW,208,3.7,5.8,65,0.00,,OVC,0.01,0.0,WeatherDisplay:10.37,2013-02-28 01:23:00,
2013-02-27 20:26:00,47.0,35.8,29.74,SSW,208,4.6,5.8,65,0.00,,OVC,0.01,0.0,WeatherDisplay:10.37,2013-02-28 01:26:00,
2013-02-27 20:27:00,47.0,35.8,29.74,SSW,208,4.7,6.0,65,0.00,,OVC,0.01,0.0,WeatherDisplay:10.37,2013-02-28 01:27:00,
2013-02-27 20:28:00,47.0,35.8,29.74,SSW,208,4.3,5.8,65,0.00,,OVC,0.01,0.0,WeatherDisplay:10.37,2013-02-28 01:28:00,
2013-02-27 20:31:00,47.1,36.3,29.74,SSW,208,6.6,9.0,66,0.00,,OVC,0.01,0.0,WeatherDisplay:10.37,2013-02-28 01:31:00,
2013-02-27 20:33:00,47.1,35.9,29.74,SSW,208,3.9,9.2,65,0.00,,OVC,0.01,0.0,WeatherDisplay:10.37,2013-02-28 01:33:00,
2013-02-27 20:34:00,47.1,35.9,29.74,SSW,208,3.9,4.6,65,0.00,,OVC,0.01,0.0,WeatherDisplay:10.37,2013-02-28 01:34:00,
2013-02-27 20:36:00,47.1,36.3,29.74,SSW,208,4.5,5.8,66,0.00,,OVC,0.01,0.0,WeatherDisplay:10.37,2013-02-28 01:36:00,
2013-02-27 20:37:00,47.1,36.3,29.74,SSW,208,4.3,5.8,66,0.00,,OVC,0.01,0.0,WeatherDisplay:10.37,2013-02-28 01:37:00,
2013-02-27 20:39:00,47.1,36.3,29.74,SSW,209,5.8,6.9,66,0.00,,OVC,0.01,0.0,WeatherDisplay:10.37,2013-02-28 01:39:00,
2013-02-27 20:40:00,47.1,36.3,29.74,SSW,208,4.3,8.1,66,0.00,,OVC,0.01,0.0,WeatherDisplay:10.37,2013-02-28 01:40:00,
2013-02-27 20:41:00,47.1,36.3,29.74,SSW,209,4.6,6.9,66,0.00,,OVC,0.01,0.0,WeatherDisplay:10.37,2013-02-28 01:41:00,
2013-02-27 20:42:00,47.0,36.2,29.74,SW,215,6.9,9.2,66,0.00,,OVC,0.01,0.0,WeatherDisplay:10.37,2013-02-28 01:42:00,
2013-02-27 20:45:00,47.0,36.2,29.74,SW,214,6.5,9.2,66,0.00,,OVC,0.01,0.0,WeatherDisplay:10.37,2013-02-28 01:45:00,
2013-02-27 20:46:00,47.0,36.2,29.74,SW,214,6.1,8.1,66,0.00,,OVC,0.01,0.0,WeatherDisplay:10.37,2013-02-28 01:46:00,
2013-02-27 20:47:00,47.0,36.2,29.74,SSW,213,5.9,8.1,66,0.00,,OVC,0.01,0.0,WeatherDisplay:10.37,2013-02-28 01:47:00,
2013-02-27 20:51:00,47.0,36.2,29.75,SW,215,7.2,11.5,66,0.00,,OVC,0.01,0.0,WeatherDisplay:10.37,2013-02-28 01:51:00,
2013-02-27 20:52:00,47.0,36.2,29.75,SW,216,7.1,10.4,66,0.00,,OVC,0.01,0.0,WeatherDisplay:10.37,2013-02-28 01:52:00,
2013-02-27 20:53:00,47.0,36.2,29.75,SW,215,7.0,10.4,66,0.00,,OVC,0.01,0.0,WeatherDisplay:10.37,2013-02-28 01:53:00,
2013-02-27 20:55:00,46.8,36.4,29.75,SW,217,7.0,10.0,67,0.00,,OVC,0.01,0.0,WeatherDisplay:10.37,2013-02-28 01:55:00,
2013-02-27 20:57:00,46.7,36.3,29.75,SW,226,7.4,10.4,67,0.00,,OVC,0.01,0.0,WeatherDisplay:10.37,2013-02-28 01:57:00,
2013-02-27 20:58:00,46.7,36.3,29.75,SW,222,7.3,11.5,67,0.00,,OVC,0.01,0.0,WeatherDisplay:10.37,2013-02-28 01:58:00,
2013-02-27 21:00:00,46.5,36.1,29.75,SW,223,7.3,9.0,67,0.00,,OVC,0.01,0.0,WeatherDisplay:10.37,2013-02-28 02:00:00,
2013-02-27 21:02:00,46.5,36.1,29.75,SW,224,5.6,10.4,67,0.00,,OVC,0.01,0.0,WeatherDisplay:10.37,2013-02-28 02:02:00,
2013-02-27 21:03:00,46.5,36.5,29.75,SW,225,6.7,10.4,68,0.00,,OVC,0.01,0.0,WeatherDisplay:10.37,2013-02-28 02:03:00,
2013-02-27 21:04:00,46.5,36.5,29.75,SW,223,6.8,10.4,68,0.00,,OVC,0.01,0.0,WeatherDisplay:10.37,2013-02-28 02:04:00,
2013-02-27 21:06:00,46.5,36.5,29.75,SW,224,5.7,10.4,68,0.00,,OVC,0.01,0.0,WeatherDisplay:10.37,2013-02-28 02:06:00,
2013-02-27 21:08:00,46.5,36.5,29.75,SW,226,5.7,6.9,68,0.00,,OVC,0.01,0.0,WeatherDisplay:10.37,2013-02-28 02:08:00,
2013-02-27 21:09:00,46.5,36.5,29.75,SW,226,6.0,8.0,68,0.00,,OVC,0.01,0.0,WeatherDisplay:10.37,2013-02-28 02:09:00,
2013-02-27 21:10:00,46.5,36.5,29.75,SW,224,7.9,10.4,68,0.00,,OVC,0.01,0.0,WeatherDisplay:10.37,2013-02-28 02:10:00,
2013-02-27 21:13:00,46.7,36.3,29.75,SW,223,5.4,9.2,67,0.00,,OVC,0.01,0.0,WeatherDisplay:10.37,2013-02-28 02:13:00,
2013-02-27 21:14:00,46.7,36.3,29.75,SW,223,6.1,9.2,67,0.00,,OVC,0.01,0.0,WeatherDisplay:10.37,2013-02-28 02:14:00,
2013-02-27 21:15:00,46.7,36.3,29.75,SW,215,5.9,9.2,67,0.00,,OVC,0.01,0.0,WeatherDisplay:10.37,2013-02-28 02:15:00,
2013-02-27 21:18:00,47.0,36.6,29.74,SSW,209,7.8,9.2,67,0.00,,OVC,0.01,0.0,WeatherDisplay:10.37,2013-02-28 02:18:00,
2013-02-27 21:20:00,47.0,36.2,29.74,SSW,207,6.1,9.2,66,0.00,,OVC,0.01,0.0,WeatherDisplay:10.37,2013-02-28 02:20:00,
2013-02-27 21:21:00,47.0,36.6,29.74,SSW,209,7.5,10.4,67,0.00,,OVC,0.01,0.0,WeatherDisplay:10.37,2013-02-28 02:21:00,
2013-02-27 21:22:00,47.0,36.6,29.74,SSW,213,7.0,10.0,67,0.00,,OVC,0.01,0.0,WeatherDisplay:10.37,2013-02-28 02:22:00,
2013-02-27 21:23:00,47.0,36.6,29.74,SSW,213,7.5,10.4,67,0.00,,OVC,0.01,0.0,WeatherDisplay:10.37,2013-02-28 02:23:00,
2013-02-27 21:26:00,47.0,36.2,29.74,SSW,210,6.1,9.2,66,0.00,,OVC,0.01,0.0,WeatherDisplay:10.37,2013-02-28 02:26:00,
2013-02-27 21:27:00,47.0,36.2,29.74,SSW,210,5.9,8.0,66,0.00,,OVC,0.01,0.0,WeatherDisplay:10.37,2013-02-28 02:27:00,
2013-02-27 21:29:00,47.0,36.2,29.74,SSW,205,7.2,10.4,66,0.00,,OVC,0.01,0.0,WeatherDisplay:10.37,2013-02-28 02:29:00,
2013-02-27 21:30:00,47.1,36.3,29.74,SSW,211,7.4,10.4,66,0.00,,OVC,0.01,0.0,WeatherDisplay:10.37,2013-02-28 02:30:00,
2013-02-27 21:31:00,47.1,36.3,29.74,SSW,213,8.7,11.0,66,0.00,,OVC,0.01,0.0,WeatherDisplay:10.37,2013-02-28 02:31:00,
2013-02-27 21:32:00,47.1,36.3,29.74,SSW,208,8.3,10.4,66,0.00,,OVC,0.01,0.0,WeatherDisplay:10.37,2013-02-28 02:32:00,
2013-02-27 21:35:00,47.3,36.5,29.75,SSW,210,9.0,11.5,66,0.00,,OVC,0.01,0.0,WeatherDisplay:10.37,2013-02-28 02:35:00,
2013-02-27 21:37:00,47.3,36.5,29.75,SSW,207,8.6,10.4,66,0.00,,OVC,0.01,0.0,WeatherDisplay:10.37,2013-02-28 02:37:00,
2013-02-27 21:38:00,47.3,36.5,29.75,SSW,206,8.4,11.5,66,0.00,,OVC,0.01,0.0,WeatherDisplay:10.37,2013-02-28 02:38:00,
2013-02-27 21:41:00,47.1,36.3,29.75,SSW,207,7.1,10.4,66,0.00,,OVC,0.01,0.0,WeatherDisplay:10.37,2013-02-28 02:41:00,
2013-02-27 21:43:00,47.3,36.5,29.75,SSW,207,5.2,5.8,66,0.00,,OVC,0.01,0.0,WeatherDisplay:10.37,2013-02-28 02:43:00,
2013-02-27 21:48:00,47.3,36.1,29.75,SSW,208,4.3,5.0,65,0.00,,OVC,0.01,0.0,WeatherDisplay:10.37,2013-02-28 02:48:00,
2013-02-27 21:49:00,47.3,36.1,29.75,SSW,208,4.2,5.0,65,0.00,,OVC,0.01,0.0,WeatherDisplay:10.37,2013-02-28 02:49:00,
2013-02-27 21:52:00,47.1,35.9,29.75,SSW,208,4.3,5.8,65,0.00,,OVC,0.01,0.0,WeatherDisplay:10.37,2013-02-28 02:52:00,
2013-02-27 21:53:00,47.0,36.2,29.75,SSW,208,3.9,5.8,66,0.00,,OVC,0.01,0.0,WeatherDisplay:10.37,2013-02-28 02:53:00,
2013-02-27 21:54:00,47.0,36.2,29.75,SSW,208,3.8,5.0,66,0.00,,OVC,0.01,0.0,WeatherDisplay:10.37,2013-02-28 02:54:00,
2013-02-27 21:56:00,47.0,36.2,29.75,SSW,208,3.7,5.0,66,0.00,,OVC,0.01,0.0,WeatherDisplay:10.37,2013-02-28 02:56:00,
2013-02-27 21:58:00,47.0,36.2,29.75,SSW,208,3.8,4.6,66,0.00,,OVC,0.01,0.0,WeatherDisplay:10.37,2013-02-28 02:58:00,
2013-02-27 22:00:00,46.8,36.0,29.75,SSW,208,3.7,5.0,66,0.00,,OVC,0.01,0.0,WeatherDisplay:10.37,2013-02-28 03:00:00,
2013-02-27 22:01:00,46.8,36.0,29.75,SSW,208,4.2,5.8,66,0.00,,OVC,0.01,0.0,WeatherDisplay:10.37,2013-02-28 03:01:00,
2013-02-27 22:06:00,46.7,35.9,29.73,SSW,208,4.3,5.0,66,0.00,,OVC,0.01,0.0,WeatherDisplay:10.37,2013-02-28 03:06:00,
2013-02-27 22:07:00,46.5,36.1,29.73,SSW,208,4.3,5.0,67,0.00,,OVC,0.01,0.0,WeatherDisplay:10.37,2013-02-28 03:07:00,
2013-02-27 22:10:00,46.4,36.0,29.73,SSW,208,3.7,5.0,67,0.00,,OVC,0.01,0.0,WeatherDisplay:10.37,2013-02-28 03:10:00,
2013-02-27 22:12:00,46.4,36.0,29.73,SSW,208,3.6,4.6,67,0.00,,OVC,0.01,0.0,WeatherDisplay:10.37,2013-02-28 03:12:00,
2013-02-27 22:13:00,46.4,36.0,29.73,SSW,208,2.7,4.0,67,0.00,,OVC,0.01,0.0,WeatherDisplay:10.37,2013-02-28 03:13:00,
2013-02-27 22:14:00,46.4,36.0,29.73,SSW,208,3.3,3.5,67,0.00,,OVC,0.01,0.0,WeatherDisplay:10.37,2013-02-28 03:14:00,
2013-02-27 22:18:00,46.2,35.8,29.73,SSW,208,3.8,4.0,67,0.00,,OVC,0.01,0.0,WeatherDisplay:10.37,2013-02-28 03:18:00,
2013-02-27 22:19:00,46.2,36.2,29.73,SSW,208,3.7,5.0,68,0.00,,OVC,0.01,0.0,WeatherDisplay:10.37,2013-02-28 03:19:00,
2013-02-27 22:21:00,46.2,36.2,29.73,SSW,208,4.3,4.6,68,0.00,,OVC,0.01,0.0,WeatherDisplay:10.37,2013-02-28 03:21:00,
2013-02-27 22:23:00,46.2,36.2,29.73,SSW,208,3.9,6.0,68,0.00,,OVC,0.01,0.0,WeatherDisplay:10.37,2013-02-28 03:23:00,
2013-02-27 22:25:00,46.1,36.1,29.73,SSW,208,4.3,6.0,68,0.00,,OVC,0.01,0.0,WeatherDisplay:10.37,2013-02-28 03:25:00,
2013-02-27 22:26:00,46.1,36.1,29.73,SSW,208,4.0,5.8,68,0.00,,OVC,0.01,0.0,WeatherDisplay:10.37,2013-02-28 03:26:00,
2013-02-27 22:28:00,46.0,36.0,29.73,SSW,208,3.9,4.6,68,0.00,,OVC,0.01,0.0,WeatherDisplay:10.37,2013-02-28 03:28:00,
2013-02-27 22:30:00,46.0,36.0,29.73,SSW,208,3.0,4.0,68,0.00,,OVC,0.01,0.0,WeatherDisplay:10.37,2013-02-28 03:30:00,
2013-02-27 22:31:00,46.0,36.0,29.73,SSW,208,3.6,4.6,68,0.00,,OVC,0.01,0.0,WeatherDisplay:10.37,2013-02-28 03:31:00,
2013-02-27 22:33:00,46.0,36.0,29.73,SSW,208,2.5,4.6,68,0.00,,OVC,0.01,0.0,WeatherDisplay:10.37,2013-02-28 03:33:00,
2013-02-27 22:35:00,46.0,36.0,29.74,SSW,208,1.3,2.3,68,0.00,,OVC,0.01,0.0,WeatherDisplay:10.37,2013-02-28 03:35:00,
2013-02-27 22:37:00,45.8,36.2,29.74,SSW,208,0.0,2.3,69,0.00,,OVC,0.01,0.0,WeatherDisplay:10.37,2013-02-28 03:37:00,
2013-02-27 22:38:00,45.8,36.2,29.74,SSW,208,0.0,0.0,69,0.00,,OVC,0.01,0.0,WeatherDisplay:10.37,2013-02-28 03:38:00,
2013-02-27 22:39:00,45.7,36.1,29.74,SSW,208,0.0,0.0,69,0.00,,OVC,0.01,0.0,WeatherDisplay:10.37,2013-02-28 03:39:00,
2013-02-27 22:40:00,45.7,36.1,29.74,SSW,208,0.0,0.0,69,0.00,,OVC,0.01,0.0,WeatherDisplay:10.37,2013-02-28 03:40:00,
2013-02-27 22:43:00,45.5,35.9,29.74,SSW,208,0.7,3.0,69,0.00,,OVC,0.01,0.0,WeatherDisplay:10.37,2013-02-28 03:43:00,
2013-02-27 22:44:00,45.5,35.9,29.74,SSW,208,2.7,3.5,69,0.00,,OVC,0.01,0.0,WeatherDisplay:10.37,2013-02-28 03:44:00,
2013-02-27 22:46:00,45.5,35.9,29.74,SSW,208,1.1,3.5,69,0.00,,OVC,0.01,0.0,WeatherDisplay:10.37,2013-02-28 03:46:00,
2013-02-27 22:49:00,45.4,35.8,29.74,SSW,208,0.0,0.0,69,0.00,,OVC,0.01,0.0,WeatherDisplay:10.37,2013-02-28 03:49:00,
2013-02-27 22:50:00,45.4,35.8,29.73,SSW,208,0.0,0.0,69,0.00,,OVC,0.01,0.0,WeatherDisplay:10.37,2013-02-28 03:50:00,
2013-02-27 22:51:00,45.2,35.6,29.73,SSW,208,0.0,0.0,69,0.00,,OVC,0.01,0.0,WeatherDisplay:10.37,2013-02-28 03:51:00,
2013-02-27 22:54:00,44.9,35.7,29.73,SSW,208,0.0,0.0,70,0.00,,OVC,0.01,0.0,WeatherDisplay:10.37,2013-02-28 03:54:00,
2013-02-27 22:55:00,44.9,35.7,29.73,SSW,208,0.0,0.0,70,0.00,,OVC,0.01,0.0,WeatherDisplay:10.37,2013-02-28 03:55:00,
2013-02-27 22:58:00,44.6,35.8,29.73,SSW,208,0.0,0.0,71,0.00,,OVC,0.01,0.0,WeatherDisplay:10.37,2013-02-28 03:58:00,
2013-02-27 22:59:00,44.6,35.8,29.73,SSW,208,0.0,0.0,71,0.00,,OVC,0.01,0.0,WeatherDisplay:10.37,2013-02-28 03:59:00,
2013-02-27 23:00:00,44.6,35.7,29.73,SSW,208,0.0,3.0,71,0.00,,OVC,0.01,0.0,WeatherDisplay:10.37,2013-02-28 04:00:00,
2013-02-27 23:01:00,43.6,34.8,29.73,NW,323,4.2,6.0,71,0.00,,OVC,0.01,0.0,WeatherDisplay:10.37,2013-02-28 04:01:00,
2013-02-27 23:04:00,42.1,35.1,29.74,NW,315,7.5,10.4,76,0.00,,OVC,0.01,0.0,WeatherDisplay:10.37,2013-02-28 04:04:00,
2013-02-27 23:05:00,41.9,35.2,29.74,NW,315,7.3,10.4,77,0.00,,OVC,0.01,0.0,WeatherDisplay:10.37,2013-02-28 04:05:00,
2013-02-27 23:06:00,42.1,36.1,29.74,NW,315,3.9,6.9,79,0.00,,OVC,0.01,0.0,WeatherDisplay:10.37,2013-02-28 04:06:00,
2013-02-27 23:07:00,42.1,36.1,29.74,NW,315,3.3,6.9,79,0.00,,OVC,0.01,0.0,WeatherDisplay:10.37,2013-02-28 04:07:00,
2013-02-27 23:09:00,42.6,35.9,29.74,NW,315,5.1,6.0,77,0.00,,OVC,0.01,0.0,WeatherDisplay:10.37,2013-02-28 04:09:00,
2013-02-27 23:11:00,42.9,35.9,29.74,NW,314,6.0,6.9,76,0.00,,OVC,0.01,0.0,WeatherDisplay:10.37,2013-02-28 04:11:00,
2013-02-27 23:13:00,43.1,36.0,29.74,NW,314,5.0,5.8,76,0.00,,OVC,0.01,0.0,WeatherDisplay:10.37,2013-02-28 04:13:00,
2013-02-27 23:15:00,43.1,36.0,29.74,NW,314,5.0,10.0,76,0.00,,OVC,0.01,0.0,WeatherDisplay:10.37,2013-02-28 04:15:00,
2013-02-27 23:18:00,43.3,35.9,29.74,NW,313,4.3,4.6,75,0.00,,OVC,0.01,0.0,WeatherDisplay:10.37,2013-02-28 04:18:00,
2013-02-27 23:19:00,43.3,35.9,29.74,NW,313,4.3,4.6,75,0.00,,OVC,0.01,0.0,WeatherDisplay:10.37,2013-02-28 04:19:00,
2013-02-27 23:21:00,43.6,35.9,29.74,NW,312,3.3,4.6,74,0.00,,OVC,0.01,0.0,WeatherDisplay:10.37,2013-02-28 04:21:00,
2013-02-27 23:22:00,43.6,35.9,29.74,NW,312,3.5,5.0,74,0.00,,OVC,0.01,0.0,WeatherDisplay:10.37,2013-02-28 04:22:00,
2013-02-27 23:23:00,43.8,36.0,29.74,NW,312,3.2,4.6,74,0.00,,OVC,0.01,0.0,WeatherDisplay:10.37,2013-02-28 04:23:00,
2013-02-27 23:24:00,43.8,36.0,29.74,NW,312,2.2,4.6,74,0.00,,OVC,0.01,0.0,WeatherDisplay:10.37,2013-02-28 04:24:00,
2013-02-27 23:26:00,43.9,35.8,29.74,NW,312,2.8,3.5,73,0.00,,OVC,0.01,0.0,WeatherDisplay:10.37,2013-02-28 04:26:00,
2013-02-27 23:28:00,43.8,35.7,29.74,NW,312,2.7,3.5,73,0.00,,OVC,0.01,0.0,WeatherDisplay:10.37,2013-02-28 04:28:00,
2013-02-27 23:29:00,43.8,35.7,29.74,NW,312,2.3,3.5,73,0.00,,OVC,0.01,0.0,WeatherDisplay:10.37,2013-02-28 04:29:00,
2013-02-27 23:32:00,43.8,36.0,29.74,NW,312,2.5,3.5,74,0.00,,OVC,0.01,0.0,WeatherDisplay:10.37,2013-02-28 04:32:00,
2013-02-27 23:35:00,43.8,35.7,29.74,NW,312,2.2,3.5,73,0.00,,OVC,0.01,0.0,WeatherDisplay:10.37,2013-02-28 04:35:00,
2013-02-27 23:36:00,43.8,35.7,29.74,NW,312,2.7,3.5,73,0.00,,OVC,0.01,0.0,WeatherDisplay:10.37,2013-02-28 04:36:00,
2013-02-27 23:40:00,43.5,35.8,29.74,WNW,296,5.9,9.0,74,0.00,,OVC,0.01,0.0,WeatherDisplay:10.37,2013-02-28 04:40:00,
2013-02-27 23:41:00,43.2,35.8,29.74,WNW,292,9.3,14.0,75,0.00,,OVC,0.01,0.0,WeatherDisplay:10.37,2013-02-28 04:41:00,
2013-02-27 23:42:00,43.1,35.7,29.74,West,268,13.4,23.0,75,0.00,,OVC,0.01,0.0,WeatherDisplay:10.37,2013-02-28 04:42:00,
2013-02-27 23:46:00,44.1,36.0,29.74,NW,318,12.0,17.3,73,0.00,,OVC,0.01,0.0,WeatherDisplay:10.37,2013-02-28 04:46:00,
2013-02-27 23:47:00,44.1,36.0,29.74,NW,325,12.0,17.3,73,0.00,,OVC,0.01,0.0,WeatherDisplay:10.37,2013-02-28 04:47:00,
2013-02-27 23:52:00,44.1,36.0,29.75,NW,304,10.2,13.0,73,0.00,,OVC,0.01,0.0,WeatherDisplay:10.37,2013-02-28 04:52:00,
2013-02-27 23:53:00,44.1,36.0,29.75,NW,304,11.8,14.0,73,0.00,,OVC,0.01,0.0,WeatherDisplay:10.37,2013-02-28 04:53:00,
2013-02-27 23:54:00,44.1,36.0,29.75,WNW,288,9.4,13.8,73,0.00,,OVC,0.01,0.0,WeatherDisplay:10.37,2013-02-28 04:54:00,
2013-02-27 23:57:00,44.1,36.0,29.75,NW,319,9.2,11.5,73,0.00,,OVC,0.01,0.0,WeatherDisplay:10.37,2013-02-28 04:57:00,
2013-02-27 23:58:00,44.1,36.0,29.75,WNW,300,5.8,10.0,73,0.00,,OVC,0.01,0.0,WeatherDisplay:10.37,2013-02-28 04:58:00,